Wetterdaten: Donnerstag, 13.08.2020
Datum Zeit Temp. Aussen Temp. o. S. Temp +5cm Feuchte Auss Luftdruck Regen Sonnenschein Regendauer Solar Windben Empfang
13.08.2020 00:00 22,7 C 21,1 C 21,1 C 82 % 1013,0 hPa 0,0 l/m 0 min 0 min 0 W/m 12,9 km/h (3 Bft) 97,87 %
13.08.2020 00:02 22,7 C 21,1 C 21,1 C 82 % 1013,0 hPa 0,0 l/m 0 min 0 min 0 W/m 12,9 km/h (3 Bft) 9,52 %
13.08.2020 00:04 22,6 C 21,1 C 21,1 C 83 % 1013,0 hPa 0,0 l/m 0 min 0 min 0 W/m 12,9 km/h (3 Bft) 94,87 %
13.08.2020 00:08 22,6 C 21,1 C 21,1 C 83 % 1012,9 hPa 0,0 l/m 0 min 0 min 0 W/m 6,4 km/h (2 Bft) 97,85 %
13.08.2020 00:10 22,6 C 21,1 C 21,1 C 83 % 1012,9 hPa 0,0 l/m 0 min 0 min 0 W/m 6,4 km/h (2 Bft) 97,87 %
13.08.2020 00:12 22,6 C 21,1 C 21,1 C 83 % 1012,9 hPa 0,0 l/m 0 min 0 min 0 W/m 6,4 km/h (2 Bft) 95,74 %
13.08.2020 00:14 22,6 C 21,1 C 21,1 C 84 % 1012,9 hPa 0,0 l/m 0 min 0 min 0 W/m 6,4 km/h (2 Bft) 97,87 %
13.08.2020 00:16 22,5 C 21,1 C 21,1 C 84 % 1012,9 hPa 0,0 l/m 0 min 0 min 0 W/m 3,2 km/h (1 Bft) 93,62 %
13.08.2020 00:18 22,5 C 20,6 C 21,1 C 84 % 1012,9 hPa 0,0 l/m 0 min 0 min 0 W/m 6,4 km/h (2 Bft) 95,74 %
13.08.2020 00:20 22,4 C 20,6 C 21,1 C 84 % 1012,9 hPa 0,0 l/m 0 min 0 min 0 W/m 3,2 km/h (1 Bft) 93,48 %
13.08.2020 00:22 22,4 C 20,6 C 21,1 C 84 % 1012,9 hPa 0,0 l/m 0 min 0 min 0 W/m 6,4 km/h (2 Bft) 95,74 %
13.08.2020 00:24 22,4 C 20,6 C 21,1 C 84 % 1012,9 hPa 0,0 l/m 0 min 0 min 0 W/m 3,2 km/h (1 Bft) 93,62 %
13.08.2020 00:26 22,4 C 20,6 C 21,1 C 84 % 1012,8 hPa 0,0 l/m 0 min 0 min 0 W/m 12,9 km/h (3 Bft) 95,74 %
13.08.2020 00:28 22,3 C 20,6 C 21,1 C 84 % 1012,8 hPa 0,0 l/m 0 min 0 min 0 W/m 16,1 km/h (3 Bft) 95,74 %
13.08.2020 00:30 22,3 C 20,6 C 21,1 C 84 % 1012,7 hPa 0,0 l/m 0 min 0 min 0 W/m 12,9 km/h (3 Bft) 95,74 %
13.08.2020 00:32 22,3 C 20,6 C 21,1 C 84 % 1012,7 hPa 0,0 l/m 0 min 0 min 0 W/m 6,4 km/h (2 Bft) 95,65 %
13.08.2020 00:34 22,3 C 20,6 C 21,1 C 85 % 1012,7 hPa 0,0 l/m 0 min 0 min 0 W/m 6,4 km/h (2 Bft) 93,62 %
13.08.2020 00:36 22,2 C 20,6 C 21,1 C 85 % 1012,7 hPa 0,0 l/m 0 min 0 min 0 W/m 6,4 km/h (2 Bft) 95,74 %
13.08.2020 00:38 22,2 C 20,6 C 21,1 C 85 % 1012,7 hPa 0,0 l/m 0 min 0 min 0 W/m 6,4 km/h (2 Bft) 97,87 %
13.08.2020 00:40 22,2 C 20,6 C 21,1 C 85 % 1012,7 hPa 0,0 l/m 0 min 0 min 0 W/m 6,4 km/h (2 Bft) 97,87 %
13.08.2020 00:42 22,2 C 20,6 C 20,6 C 85 % 1012,7 hPa 0,0 l/m 0 min 0 min 0 W/m 12,9 km/h (3 Bft) 97,87 %
13.08.2020 00:44 22,1 C 20,6 C 20,6 C 85 % 1012,7 hPa 0,0 l/m 0 min 0 min 0 W/m 12,9 km/h (3 Bft) 97,83 %
13.08.2020 00:46 22,1 C 20,6 C 20,6 C 85 % 1012,8 hPa 0,0 l/m 0 min 0 min 0 W/m 12,9 km/h (3 Bft) 97,87 %
13.08.2020 00:48 22,1 C 20,6 C 20,6 C 85 % 1012,8 hPa 0,0 l/m 0 min 0 min 0 W/m 6,4 km/h (2 Bft) 95,74 %
13.08.2020 00:50 22,1 C 20,6 C 20,6 C 85 % 1012,9 hPa 0,0 l/m 0 min 0 min 0 W/m 12,9 km/h (3 Bft) 93,62 %
13.08.2020 00:52 22,1 C 20,6 C 20,6 C 85 % 1012,8 hPa 0,0 l/m 0 min 0 min 0 W/m 6,4 km/h (2 Bft) 95,74 %
13.08.2020 00:54 22,0 C 20,6 C 20,6 C 85 % 1012,8 hPa 0,0 l/m 0 min 0 min 0 W/m 12,9 km/h (3 Bft) 97,87 %
13.08.2020 00:56 22,0 C 20,6 C 20,6 C 85 % 1012,8 hPa 0,0 l/m 0 min 0 min 0 W/m 19,3 km/h (3 Bft) 95,65 %
13.08.2020 00:58 21,9 C 20,6 C 20,6 C 85 % 1012,8 hPa 0,0 l/m 0 min 0 min 0 W/m 19,3 km/h (3 Bft) 95,74 %
13.08.2020 01:00 21,9 C 20,6 C 20,6 C 85 % 1012,7 hPa 0,0 l/m 0 min 0 min 0 W/m 3,2 km/h (1 Bft) 95,74 %
13.08.2020 01:02 21,9 C 20,6 C 20,6 C 85 % 1012,7 hPa 0,0 l/m 0 min 0 min 0 W/m 3,2 km/h (1 Bft) 95,74 %
13.08.2020 01:04 21,9 C 20,6 C 20,6 C 85 % 1012,6 hPa 0,0 l/m 0 min 0 min 0 W/m 3,2 km/h (1 Bft) 95,74 %
13.08.2020 01:06 21,9 C 20,6 C 20,6 C 85 % 1012,7 hPa 0,0 l/m 0 min 0 min 0 W/m 6,4 km/h (2 Bft) 95,65 %
13.08.2020 01:08 21,9 C 20,6 C 20,6 C 85 % 1012,7 hPa 0,0 l/m 0 min 0 min 0 W/m 6,4 km/h (2 Bft) 93,62 %
13.08.2020 01:10 21,9 C 20,6 C 20,6 C 85 % 1012,7 hPa 0,0 l/m 0 min 0 min 0 W/m 12,9 km/h (3 Bft) 95,74 %
13.08.2020 01:12 21,9 C 20,6 C 20,6 C 85 % 1012,8 hPa 0,0 l/m 0 min 0 min 0 W/m 12,9 km/h (3 Bft) 93,62 %
13.08.2020 01:14 21,9 C 20,6 C 20,6 C 85 % 1012,8 hPa 0,0 l/m 0 min 0 min 0 W/m 12,9 km/h (3 Bft) 95,74 %
13.08.2020 01:16 21,9 C 20,6 C 20,6 C 85 % 1012,8 hPa 0,0 l/m 0 min 0 min 0 W/m 12,9 km/h (3 Bft) 95,74 %
13.08.2020 01:18 21,8 C 20,6 C 20,6 C 85 % 1012,8 hPa 0,0 l/m 0 min 0 min 0 W/m 12,9 km/h (3 Bft) 97,14 %
13.08.2020 01:20 21,9 C 20,6 C 20,6 C 85 % 1012,8 hPa 0,0 l/m 0 min 0 min 0 W/m 6,4 km/h (2 Bft) 97,87 %
13.08.2020 01:22 21,8 C 20,6 C 20,6 C 85 % 1012,7 hPa 0,0 l/m 0 min 0 min 0 W/m 16,1 km/h (3 Bft) 97,83 %
13.08.2020 01:24 21,8 C 20,6 C 20,6 C 85 % 1012,7 hPa 0,0 l/m 0 min 0 min 0 W/m 12,9 km/h (3 Bft) 97,87 %
13.08.2020 01:26 21,8 C 20,6 C 20,6 C 85 % 1012,7 hPa 0,0 l/m 0 min 0 min 0 W/m 12,9 km/h (3 Bft) 93,62 %
13.08.2020 01:28 21,8 C 20,6 C 20,6 C 85 % 1012,8 hPa 0,0 l/m 0 min 0 min 0 W/m 12,9 km/h (3 Bft) 97,87 %
13.08.2020 01:30 21,8 C 20,6 C 20,6 C 85 % 1012,7 hPa 0,0 l/m 0 min 0 min 0 W/m 16,1 km/h (3 Bft) 95,74 %
13.08.2020 01:32 21,8 C 20,6 C 20,6 C 85 % 1012,7 hPa 0,0 l/m 0 min 0 min 0 W/m 6,4 km/h (2 Bft) 97,87 %
13.08.2020 01:34 21,8 C 20,6 C 20,6 C 85 % 1012,7 hPa 0,0 l/m 0 min 0 min 0 W/m 3,2 km/h (1 Bft) 100,00 %
13.08.2020 01:36 21,8 C 20,6 C 20,6 C 85 % 1012,7 hPa 0,0 l/m 0 min 0 min 0 W/m 6,4 km/h (2 Bft) 98,31 %
13.08.2020 01:38 21,8 C 20,6 C 20,6 C 85 % 1012,6 hPa 0,0 l/m 0 min 0 min 0 W/m 3,2 km/h (1 Bft) 100,00 %
13.08.2020 01:40 21,8 C 20,6 C 20,6 C 85 % 1012,6 hPa 0,0 l/m 0 min 0 min 0 W/m 3,2 km/h (1 Bft) 97,14 %
13.08.2020 01:42 21,8 C 20,6 C 20,6 C 85 % 1012,5 hPa 0,0 l/m 0 min 0 min 0 W/m 6,4 km/h (2 Bft) 100,00 %
13.08.2020 01:44 21,8 C 20,6 C 20,6 C 85 % 1012,5 hPa 0,0 l/m 0 min 0 min 0 W/m 6,4 km/h (2 Bft) 100,00 %
13.08.2020 01:46 21,8 C 20,6 C 20,6 C 85 % 1012,4 hPa 0,0 l/m 0 min 0 min 0 W/m 6,4 km/h (2 Bft) 100,00 %
13.08.2020 01:48 21,8 C 20,6 C 20,6 C 85 % 1012,2 hPa 0,0 l/m 0 min 0 min 0 W/m 6,4 km/h (2 Bft) 100,00 %
13.08.2020 01:50 21,8 C 20,6 C 20,6 C 85 % 1012,2 hPa 0,0 l/m 0 min 0 min 0 W/m 6,4 km/h (2 Bft) 100,00 %
13.08.2020 01:52 21,7 C 20,6 C 20,6 C 85 % 1012,2 hPa 0,0 l/m 0 min 0 min 0 W/m 6,4 km/h (2 Bft) 100,00 %
13.08.2020 01:54 21,8 C 20,6 C 20,6 C 85 % 1012,2 hPa 0,0 l/m 0 min 0 min 0 W/m 3,2 km/h (1 Bft) 97,87 %
13.08.2020 01:56 21,7 C 20,6 C 20,6 C 85 % 1012,2 hPa 0,0 l/m 0 min 0 min 0 W/m 3,2 km/h (1 Bft) 100,00 %
13.08.2020 01:58 21,7 C 20,6 C 20,6 C 85 % 1012,2 hPa 0,0 l/m 0 min 0 min 0 W/m 0,0 km/h (0 Bft) 100,00 %
13.08.2020 02:00 21,7 C 20,0 C 20,6 C 85 % 1012,1 hPa 0,0 l/m 0 min 0 min 0 W/m 0,0 km/h (0 Bft) 100,00 %
13.08.2020 02:02 21,8 C 20,0 C 20,6 C 86 % 1012,1 hPa 0,0 l/m 0 min 0 min 0 W/m 3,2 km/h (1 Bft) 97,87 %
13.08.2020 02:04 21,7 C 20,0 C 20,6 C 86 % 1012,0 hPa 0,0 l/m 0 min 0 min 0 W/m 3,2 km/h (1 Bft) 100,00 %
13.08.2020 02:06 21,7 C 20,0 C 20,6 C 86 % 1011,9 hPa 0,0 l/m 0 min 0 min 0 W/m 6,4 km/h (2 Bft) 97,87 %
13.08.2020 02:08 21,7 C 20,0 C 20,6 C 86 % 1012,0 hPa 0,0 l/m 0 min 0 min 0 W/m 6,4 km/h (2 Bft) 100,00 %
13.08.2020 02:10 21,7 C 20,6 C 20,6 C 86 % 1012,0 hPa 0,0 l/m 0 min 0 min 0 W/m 3,2 km/h (1 Bft) 100,00 %
13.08.2020 02:12 21,7 C 20,0 C 20,6 C 86 % 1011,9 hPa 0,0 l/m 0 min 0 min 0 W/m 3,2 km/h (1 Bft) 97,87 %
13.08.2020 02:14 21,7 C 20,0 C 20,6 C 86 % 1011,9 hPa 0,0 l/m 0 min 0 min 0 W/m 0,0 km/h (0 Bft) 100,00 %
13.08.2020 02:16 21,7 C 20,0 C 20,6 C 86 % 1011,8 hPa 0,0 l/m 0 min 0 min 0 W/m 3,2 km/h (1 Bft) 97,87 %
13.08.2020 02:18 21,6 C 20,0 C 20,6 C 86 % 1011,9 hPa 0,0 l/m 0 min 0 min 0 W/m 3,2 km/h (1 Bft) 97,87 %
13.08.2020 02:20 21,6 C 20,6 C 20,6 C 86 % 1011,9 hPa 0,0 l/m 0 min 0 min 0 W/m 6,4 km/h (2 Bft) 100,00 %
13.08.2020 02:22 21,6 C 20,6 C 20,6 C 86 % 1011,9 hPa 0,0 l/m 0 min 0 min 0 W/m 6,4 km/h (2 Bft) 97,87 %
13.08.2020 02:24 21,6 C 20,0 C 20,6 C 86 % 1012,0 hPa 0,0 l/m 0 min 0 min 0 W/m 3,2 km/h (1 Bft) 97,87 %
13.08.2020 02:26 21,6 C 20,0 C 20,6 C 86 % 1011,9 hPa 0,0 l/m 0 min 0 min 0 W/m 3,2 km/h (1 Bft) 97,87 %
13.08.2020 02:28 21,6 C 20,0 C 20,6 C 86 % 1012,0 hPa 0,0 l/m 0 min 0 min 0 W/m 3,2 km/h (1 Bft) 100,00 %
13.08.2020 02:30 21,6 C 20,0 C 20,6 C 86 % 1011,9 hPa 0,0 l/m 0 min 0 min 0 W/m 3,2 km/h (1 Bft) 95,74 %
13.08.2020 02:32 21,6 C 20,0 C 20,6 C 86 % 1011,9 hPa 0,0 l/m 0 min 0 min 0 W/m 0,0 km/h (0 Bft) 97,83 %
13.08.2020 02:34 21,6 C 20,0 C 20,6 C 86 % 1012,0 hPa 0,0 l/m 0 min 0 min 0 W/m 0,0 km/h (0 Bft) 97,87 %
13.08.2020 02:36 21,5 C 20,0 C 20,6 C 86 % 1012,0 hPa 0,0 l/m 0 min 0 min 0 W/m 0,0 km/h (0 Bft) 100,00 %
13.08.2020 02:38 21,5 C 20,0 C 20,0 C 86 % 1012,0 hPa 0,0 l/m 0 min 0 min 0 W/m 0,0 km/h (0 Bft) 97,87 %
13.08.2020 02:40 21,5 C 20,0 C 20,6 C 86 % 1011,9 hPa 0,0 l/m 0 min 0 min 0 W/m 0,0 km/h (0 Bft) 95,74 %
13.08.2020 02:42 21,5 C 20,0 C 20,6 C 86 % 1011,8 hPa 0,0 l/m 0 min 0 min 0 W/m 3,2 km/h (1 Bft) 97,87 %
13.08.2020 02:44 21,5 C 20,0 C 20,6 C 86 % 1011,9 hPa 0,0 l/m 0 min 0 min 0 W/m 3,2 km/h (1 Bft) 95,65 %
13.08.2020 02:46 21,4 C 20,0 C 20,6 C 86 % 1011,9 hPa 0,0 l/m 0 min 0 min 0 W/m 3,2 km/h (1 Bft) 97,87 %
13.08.2020 02:48 21,4 C 20,0 C 20,6 C 86 % 1011,9 hPa 0,0 l/m 0 min 0 min 0 W/m 0,0 km/h (0 Bft) 97,87 %
13.08.2020 02:50 21,4 C 20,0 C 20,6 C 86 % 1012,0 hPa 0,0 l/m 0 min 0 min 0 W/m 0,0 km/h (0 Bft) 97,87 %
13.08.2020 02:52 21,4 C 20,0 C 20,6 C 86 % 1012,0 hPa 0,0 l/m 0 min 0 min 0 W/m 0,0 km/h (0 Bft) 97,87 %
13.08.2020 02:54 21,4 C 20,0 C 20,6 C 86 % 1011,9 hPa 0,0 l/m 0 min 0 min 0 W/m 0,0 km/h (0 Bft) 95,65 %
13.08.2020 02:56 21,4 C 20,0 C 20,6 C 86 % 1011,9 hPa 0,0 l/m 0 min 0 min 0 W/m 0,0 km/h (0 Bft) 97,87 %
13.08.2020 02:58 21,4 C 20,0 C 20,6 C 86 % 1011,8 hPa 0,0 l/m 0 min 0 min 0 W/m 0,0 km/h (0 Bft) 95,74 %
13.08.2020 03:00 21,4 C 20,0 C 20,6 C 86 % 1011,8 hPa 0,0 l/m 0 min 0 min 0 W/m 0,0 km/h (0 Bft) 97,87 %
13.08.2020 03:02 21,4 C 20,0 C 20,6 C 86 % 1011,8 hPa 0,0 l/m 0 min 0 min 0 W/m 0,0 km/h (0 Bft) 97,87 %
13.08.2020 03:04 21,4 C 20,0 C 20,0 C 87 % 1011,8 hPa 0,0 l/m 0 min 0 min 0 W/m 0,0 km/h (0 Bft) 98,04 %
13.08.2020 03:06 21,4 C 20,0 C 20,0 C 87 % 1011,9 hPa 0,0 l/m 0 min 0 min 0 W/m 0,0 km/h (0 Bft) 95,74 %
13.08.2020 03:08 21,4 C 20,0 C 20,0 C 87 % 1011,8 hPa 0,0 l/m 0 min 0 min 0 W/m 0,0 km/h (0 Bft) 97,87 %
13.08.2020 03:10 21,3 C 20,0 C 20,0 C 87 % 1011,9 hPa 0,0 l/m 0 min 0 min 0 W/m 0,0 km/h (0 Bft) 91,49 %
13.08.2020 03:12 21,3 C 20,0 C 20,6 C 87 % 1011,9 hPa 0,0 l/m 0 min 0 min 0 W/m 0,0 km/h (0 Bft) 97,83 %
13.08.2020 03:14 21,3 C 20,0 C 20,6 C 87 % 1011,9 hPa 0,0 l/m 0 min 0 min 0 W/m 0,0 km/h (0 Bft) 97,87 %
13.08.2020 03:16 21,3 C 20,0 C 20,6 C 87 % 1011,9 hPa 0,0 l/m 0 min 0 min 0 W/m 0,0 km/h (0 Bft) 95,74 %
13.08.2020 03:18 21,3 C 20,0 C 20,6 C 87 % 1012,0 hPa 0,0 l/m 0 min 0 min 0 W/m 0,0 km/h (0 Bft) 100,00 %
13.08.2020 03:20 21,3 C 20,0 C 20,6 C 87 % 1012,0 hPa 0,0 l/m 0 min 0 min 0 W/m 0,0 km/h (0 Bft) 95,74 %
13.08.2020 03:22 21,3 C 20,0 C 20,0 C 87 % 1012,0 hPa 0,0 l/m 0 min 0 min 0 W/m 0,0 km/h (0 Bft) 97,83 %
13.08.2020 03:24 21,3 C 20,0 C 20,0 C 87 % 1012,0 hPa 0,0 l/m 0 min 0 min 0 W/m 0,0 km/h (0 Bft) 97,87 %
13.08.2020 03:26 21,3 C 20,0 C 20,0 C 87 % 1012,0 hPa 0,0 l/m 0 min 0 min 0 W/m 0,0 km/h (0 Bft) 95,74 %
13.08.2020 03:28 21,3 C 20,0 C 20,0 C 87 % 1012,0 hPa 0,0 l/m 0 min 0 min 0 W/m 0,0 km/h (0 Bft) 93,62 %
13.08.2020 03:30 21,3 C 20,6 C 20,0 C 87 % 1012,0 hPa 0,0 l/m 0 min 0 min 0 W/m 0,0 km/h (0 Bft) 91,49 %
13.08.2020 03:32 21,3 C 20,6 C 20,6 C 87 % 1011,9 hPa 0,0 l/m 0 min 0 min 0 W/m 0,0 km/h (0 Bft) 95,74 %
13.08.2020 03:34 21,2 C 20,6 C 20,6 C 87 % 1012,0 hPa 0,0 l/m 0 min 0 min 0 W/m 0,0 km/h (0 Bft) 97,83 %
13.08.2020 03:36 21,2 C 20,6 C 20,6 C 87 % 1012,0 hPa 0,0 l/m 0 min 0 min 0 W/m 0,0 km/h (0 Bft) 95,74 %
13.08.2020 03:38 21,2 C 20,6 C 20,6 C 87 % 1012,0 hPa 0,0 l/m 0 min 0 min 0 W/m 0,0 km/h (0 Bft) 97,87 %
13.08.2020 03:40 21,2 C 20,6 C 20,6 C 87 % 1012,0 hPa 0,0 l/m 0 min 0 min 0 W/m 0,0 km/h (0 Bft) 97,87 %
13.08.2020 03:42 21,2 C 20,6 C 20,6 C 87 % 1011,9 hPa 0,0 l/m 0 min 0 min 0 W/m 0,0 km/h (0 Bft) 97,87 %
13.08.2020 03:44 21,2 C 20,6 C 20,6 C 87 % 1011,9 hPa 0,0 l/m 0 min 0 min 0 W/m 0,0 km/h (0 Bft) 95,74 %
13.08.2020 03:46 21,2 C 20,6 C 20,6 C 87 % 1011,9 hPa 0,0 l/m 0 min 0 min 0 W/m 0,0 km/h (0 Bft) 93,48 %
13.08.2020 03:48 21,2 C 20,6 C 20,6 C 87 % 1011,9 hPa 0,0 l/m 0 min 0 min 0 W/m 0,0 km/h (0 Bft) 95,74 %
13.08.2020 03:50 21,2 C 20,6 C 20,6 C 87 % 1011,9 hPa 0,0 l/m 0 min 0 min 0 W/m 0,0 km/h (0 Bft) 95,74 %
13.08.2020 03:52 21,2 C 20,6 C 20,6 C 87 % 1011,9 hPa 0,0 l/m 0 min 0 min 0 W/m 0,0 km/h (0 Bft) 95,74 %
13.08.2020 03:54 21,2 C 20,6 C 20,6 C 87 % 1011,9 hPa 0,0 l/m 0 min 0 min 0 W/m 0,0 km/h (0 Bft) 95,74 %
13.08.2020 03:56 21,3 C 20,6 C 20,6 C 87 % 1011,9 hPa 0,0 l/m 0 min 0 min 0 W/m 6,4 km/h (2 Bft) 95,74 %
13.08.2020 03:58 21,3 C 20,6 C 20,6 C 87 % 1011,9 hPa 0,0 l/m 0 min 0 min 0 W/m 6,4 km/h (2 Bft) 93,48 %
13.08.2020 04:00 21,3 C 20,6 C 20,6 C 86 % 1011,9 hPa 0,0 l/m 0 min 0 min 0 W/m 0,0 km/h (0 Bft) 95,74 %
13.08.2020 04:02 21,3 C 20,6 C 20,6 C 86 % 1011,9 hPa 0,0 l/m 0 min 0 min 0 W/m 0,0 km/h (0 Bft) 94,74 %
13.08.2020 04:04 21,3 C 20,6 C 20,6 C 86 % 1011,9 hPa 0,0 l/m 0 min 0 min 0 W/m 0,0 km/h (0 Bft) 93,62 %
13.08.2020 04:06 21,3 C 20,6 C 20,6 C 86 % 1011,9 hPa 0,0 l/m 0 min 0 min 0 W/m 0,0 km/h (0 Bft) 95,74 %
13.08.2020 04:08 21,3 C 20,6 C 20,6 C 86 % 1012,0 hPa 0,0 l/m 0 min 0 min 0 W/m 3,2 km/h (1 Bft) 93,62 %
13.08.2020 04:10 21,3 C 20,6 C 20,6 C 86 % 1012,0 hPa 0,0 l/m 0 min 0 min 0 W/m 6,4 km/h (2 Bft) 95,65 %
13.08.2020 04:12 21,3 C 20,6 C 20,6 C 86 % 1012,0 hPa 0,0 l/m 0 min 0 min 0 W/m 6,4 km/h (2 Bft) 93,62 %
13.08.2020 04:14 21,3 C 20,6 C 20,6 C 86 % 1012,1 hPa 0,0 l/m 0 min 0 min 0 W/m 6,4 km/h (2 Bft) 97,87 %
13.08.2020 04:16 21,3 C 20,6 C 20,6 C 86 % 1012,1 hPa 0,0 l/m 0 min 0 min 0 W/m 3,2 km/h (1 Bft) 95,74 %
13.08.2020 04:18 21,4 C 20,6 C 20,6 C 86 % 1012,2 hPa 0,0 l/m 0 min 0 min 0 W/m 6,4 km/h (2 Bft) 97,87 %
13.08.2020 04:20 21,4 C 20,6 C 20,6 C 86 % 1012,2 hPa 0,0 l/m 0 min 0 min 0 W/m 3,2 km/h (1 Bft) 97,83 %
13.08.2020 04:22 21,4 C 21,1 C 20,6 C 86 % 1012,2 hPa 0,0 l/m 0 min 0 min 0 W/m 6,4 km/h (2 Bft) 95,74 %
13.08.2020 04:24 21,4 C 20,6 C 20,6 C 86 % 1012,2 hPa 0,0 l/m 0 min 2 min 0 W/m 12,9 km/h (3 Bft) 95,74 %
13.08.2020 04:26 21,4 C 20,6 C 20,6 C 86 % 1012,2 hPa 0,0 l/m 0 min 2 min 0 W/m 6,4 km/h (2 Bft) 95,74 %
13.08.2020 04:28 21,5 C 20,6 C 20,6 C 86 % 1012,2 hPa 0,0 l/m 0 min 0 min 0 W/m 12,9 km/h (3 Bft) 97,87 %
13.08.2020 04:30 21,5 C 20,6 C 20,6 C 86 % 1012,3 hPa 0,0 l/m 0 min 0 min 0 W/m 12,9 km/h (3 Bft) 95,74 %
13.08.2020 04:32 21,6 C 21,1 C 20,6 C 86 % 1012,4 hPa 0,0 l/m 0 min 0 min 0 W/m 12,9 km/h (3 Bft) 97,83 %
13.08.2020 04:34 21,6 C 21,1 C 20,6 C 86 % 1012,5 hPa 0,0 l/m 0 min 0 min 0 W/m 12,9 km/h (3 Bft) 95,92 %
13.08.2020 04:36 21,6 C 21,1 C 20,6 C 86 % 1012,5 hPa 0,0 l/m 0 min 0 min 0 W/m 12,9 km/h (3 Bft) 97,87 %
13.08.2020 04:38 21,6 C 21,1 C 20,6 C 86 % 1012,5 hPa 0,0 l/m 0 min 0 min 0 W/m 12,9 km/h (3 Bft) 97,83 %
13.08.2020 04:40 21,6 C 21,1 C 20,6 C 86 % 1012,6 hPa 0,0 l/m 0 min 0 min 0 W/m 12,9 km/h (3 Bft) 97,87 %
13.08.2020 04:42 21,6 C 20,6 C 20,6 C 86 % 1012,6 hPa 0,0 l/m 0 min 2 min 0 W/m 6,4 km/h (2 Bft) 100,00 %
13.08.2020 04:44 21,7 C 18,9 C 19,4 C 86 % 1012,6 hPa 0,4 l/m 0 min 2 min 0 W/m 12,9 km/h (3 Bft) 100,00 %
13.08.2020 04:46 21,7 C 18,3 C 18,9 C 88 % 1012,4 hPa 0,8 l/m 0 min 2 min 0 W/m 16,1 km/h (3 Bft) 100,00 %
13.08.2020 04:48 21,8 C 18,3 C 18,3 C 88 % 1012,5 hPa 1,0 l/m 0 min 2 min 0 W/m 25,7 km/h (4 Bft) 100,00 %
13.08.2020 04:50 21,7 C 18,3 C 18,3 C 89 % 1012,5 hPa 1,0 l/m 0 min 2 min 0 W/m 19,3 km/h (3 Bft) 97,83 %
13.08.2020 04:52 21,7 C 18,3 C 18,3 C 89 % 1012,5 hPa 0,6 l/m 0 min 2 min 0 W/m 19,3 km/h (3 Bft) 100,00 %
13.08.2020 04:54 21,6 C 18,3 C 18,3 C 89 % 1012,4 hPa 0,4 l/m 0 min 2 min 0 W/m 19,3 km/h (3 Bft) 100,00 %
13.08.2020 04:56 21,5 C 18,3 C 18,3 C 89 % 1012,5 hPa 0,2 l/m 0 min 2 min 0 W/m 16,1 km/h (3 Bft) 100,00 %
13.08.2020 04:58 21,4 C 18,3 C 18,3 C 90 % 1012,4 hPa 0,2 l/m 0 min 2 min 0 W/m 19,3 km/h (3 Bft) 95,74 %
13.08.2020 05:00 21,4 C 18,3 C 18,3 C 90 % 1012,5 hPa 0,0 l/m 0 min 2 min 0 W/m 12,9 km/h (3 Bft) 100,00 %
13.08.2020 05:02 21,3 C 18,3 C 18,3 C 90 % 1012,5 hPa 0,0 l/m 0 min 2 min 0 W/m 12,9 km/h (3 Bft) 100,00 %
13.08.2020 05:04 21,2 C 18,3 C 18,3 C 90 % 1012,4 hPa 0,0 l/m 0 min 2 min 0 W/m 12,9 km/h (3 Bft) 100,00 %
13.08.2020 05:06 21,2 C 18,3 C 18,3 C 91 % 1012,5 hPa 0,2 l/m 0 min 2 min 0 W/m 6,4 km/h (2 Bft) 100,00 %
13.08.2020 05:08 21,1 C 18,3 C 18,3 C 91 % 1012,5 hPa 0,2 l/m 0 min 2 min 0 W/m 12,9 km/h (3 Bft) 100,00 %
13.08.2020 05:10 21,1 C 18,3 C 18,3 C 91 % 1012,5 hPa 0,0 l/m 0 min 2 min 0 W/m 6,4 km/h (2 Bft) 100,00 %
13.08.2020 05:12 21,1 C 18,3 C 18,3 C 91 % 1012,4 hPa 0,0 l/m 0 min 2 min 0 W/m 16,1 km/h (3 Bft) 100,00 %
13.08.2020 05:14 21,0 C 18,3 C 18,3 C 92 % 1012,4 hPa 0,0 l/m 0 min 2 min 0 W/m 12,9 km/h (3 Bft) 100,00 %
13.08.2020 05:16 20,9 C 18,3 C 18,3 C 92 % 1012,4 hPa 0,0 l/m 0 min 2 min 0 W/m 12,9 km/h (3 Bft) 100,00 %
13.08.2020 05:18 20,9 C 18,3 C 18,3 C 92 % 1012,4 hPa 0,0 l/m 0 min 2 min 0 W/m 16,1 km/h (3 Bft) 97,87 %
13.08.2020 05:20 20,8 C 18,3 C 18,3 C 92 % 1012,4 hPa 0,0 l/m 0 min 2 min 0 W/m 6,4 km/h (2 Bft) 97,87 %
13.08.2020 05:22 20,8 C 18,3 C 18,3 C 92 % 1012,4 hPa 0,2 l/m 0 min 0 min 0 W/m 0,0 km/h (0 Bft) 100,00 %
13.08.2020 05:24 20,8 C 18,3 C 18,3 C 92 % 1012,4 hPa 0,0 l/m 0 min 0 min 0 W/m 0,0 km/h (0 Bft) 97,83 %
13.08.2020 05:26 20,7 C 18,3 C 18,3 C 92 % 1012,4 hPa 0,0 l/m 0 min 0 min 0 W/m 0,0 km/h (0 Bft) 95,74 %
13.08.2020 05:28 20,7 C 18,3 C 18,9 C 92 % 1012,5 hPa 0,0 l/m 0 min 2 min 0 W/m 3,2 km/h (1 Bft) 97,87 %
13.08.2020 05:30 20,7 C 18,9 C 18,3 C 93 % 1012,6 hPa 0,0 l/m 0 min 2 min 0 W/m 6,4 km/h (2 Bft) 100,00 %
13.08.2020 05:32 20,7 C 18,3 C 18,3 C 93 % 1012,6 hPa 0,0 l/m 0 min 2 min 0 W/m 3,2 km/h (1 Bft) 100,00 %
13.08.2020 05:34 20,7 C 18,3 C 18,3 C 93 % 1012,5 hPa 0,4 l/m 0 min 2 min 0 W/m 3,2 km/h (1 Bft) 97,87 %
13.08.2020 05:36 20,7 C 18,3 C 18,3 C 93 % 1012,4 hPa 0,2 l/m 0 min 2 min 0 W/m 3,2 km/h (1 Bft) 97,83 %
13.08.2020 05:38 20,7 C 18,3 C 18,3 C 93 % 1012,4 hPa 0,0 l/m 0 min 2 min 0 W/m 6,4 km/h (2 Bft) 97,87 %
13.08.2020 05:40 20,7 C 18,3 C 18,3 C 94 % 1012,5 hPa 0,0 l/m 0 min 2 min 0 W/m 6,4 km/h (2 Bft) 93,62 %
13.08.2020 05:42 20,7 C 18,3 C 18,3 C 94 % 1012,5 hPa 0,0 l/m 0 min 2 min 0 W/m 12,9 km/h (3 Bft) 97,87 %
13.08.2020 05:44 20,7 C 18,3 C 18,3 C 94 % 1012,4 hPa 0,0 l/m 0 min 2 min 0 W/m 6,4 km/h (2 Bft) 95,74 %
13.08.2020 05:46 20,6 C 18,3 C 18,3 C 94 % 1012,3 hPa 0,0 l/m 0 min 2 min 0 W/m 3,2 km/h (1 Bft) 95,74 %
13.08.2020 05:48 20,6 C 18,3 C 18,3 C 94 % 1012,2 hPa 0,2 l/m 0 min 2 min 0 W/m 16,1 km/h (3 Bft) 97,83 %
13.08.2020 05:50 20,6 C 18,3 C 18,3 C 94 % 1012,3 hPa 0,0 l/m 0 min 2 min 0 W/m 6,4 km/h (2 Bft) 97,87 %
13.08.2020 05:52 20,6 C 18,3 C 18,3 C 94 % 1012,4 hPa 0,0 l/m 0 min 2 min 0 W/m 6,4 km/h (2 Bft) 95,74 %
13.08.2020 05:54 20,6 C 18,3 C 18,3 C 94 % 1012,4 hPa 0,0 l/m 0 min 2 min 0 W/m 0,0 km/h (0 Bft) 97,87 %
13.08.2020 05:56 20,6 C 18,3 C 18,3 C 94 % 1012,3 hPa 0,0 l/m 0 min 0 min 0 W/m 3,2 km/h (1 Bft) 97,87 %
13.08.2020 05:58 20,6 C 18,3 C 18,3 C 95 % 1012,3 hPa 0,0 l/m 0 min 0 min 0 W/m 0,0 km/h (0 Bft) 97,87 %
13.08.2020 06:00 20,5 C 18,3 C 18,3 C 95 % 1012,4 hPa 0,0 l/m 0 min 0 min 0 W/m 12,9 km/h (3 Bft) 95,74 %
13.08.2020 06:02 20,5 C 18,9 C 18,3 C 95 % 1012,3 hPa 0,0 l/m 0 min 2 min 0 W/m 12,9 km/h (3 Bft) 97,83 %
13.08.2020 06:04 20,5 C 18,9 C 18,3 C 95 % 1012,2 hPa 0,0 l/m 0 min 2 min 0 W/m 16,1 km/h (3 Bft) 97,87 %
13.08.2020 06:08 20,4 C 18,3 C 18,3 C 95 % 1012,2 hPa 0,0 l/m 0 min 0 min 0 W/m 6,4 km/h (2 Bft) 95,74 %
13.08.2020 06:10 20,4 C 18,3 C 18,3 C 95 % 1012,2 hPa 0,0 l/m 0 min 2 min 0 W/m 0,0 km/h (0 Bft) 95,74 %
13.08.2020 06:12 20,4 C 18,3 C 18,3 C 95 % 1012,3 hPa 0,0 l/m 0 min 2 min 0 W/m 3,2 km/h (1 Bft) 95,65 %
13.08.2020 06:14 20,4 C 18,3 C 18,3 C 95 % 1012,3 hPa 0,0 l/m 0 min 0 min 0 W/m 0,0 km/h (0 Bft) 95,74 %
13.08.2020 06:16 20,4 C 18,3 C 18,3 C 95 % 1012,2 hPa 0,0 l/m 0 min 0 min 0 W/m 0,0 km/h (0 Bft) 95,74 %
13.08.2020 06:18 20,4 C 18,3 C 18,9 C 95 % 1012,3 hPa 0,0 l/m 0 min 0 min 0 W/m 3,2 km/h (1 Bft) 95,74 %
13.08.2020 06:20 20,4 C 18,3 C 18,9 C 95 % 1012,3 hPa 0,0 l/m 0 min 0 min 0 W/m 0,0 km/h (0 Bft) 95,74 %
13.08.2020 06:22 20,4 C 18,3 C 18,9 C 95 % 1012,3 hPa 0,0 l/m 0 min 0 min 0 W/m 0,0 km/h (0 Bft) 93,62 %
13.08.2020 06:24 20,3 C 18,3 C 18,9 C 95 % 1012,3 hPa 0,0 l/m 0 min 0 min 0 W/m 0,0 km/h (0 Bft) 97,83 %
13.08.2020 06:26 20,3 C 18,3 C 18,3 C 95 % 1012,4 hPa 0,0 l/m 0 min 0 min 0 W/m 3,2 km/h (1 Bft) 97,87 %
13.08.2020 06:28 20,3 C 18,9 C 18,3 C 95 % 1012,4 hPa 0,0 l/m 0 min 0 min 0 W/m 3,2 km/h (1 Bft) 97,87 %
13.08.2020 06:30 20,3 C 18,9 C 18,3 C 96 % 1012,4 hPa 0,0 l/m 0 min 0 min 0 W/m 3,2 km/h (1 Bft) 97,87 %
13.08.2020 06:32 20,4 C 18,9 C 18,3 C 96 % 1012,4 hPa 0,0 l/m 0 min 0 min 0 W/m 3,2 km/h (1 Bft) 97,87 %
13.08.2020 06:34 20,4 C 18,9 C 18,3 C 96 % 1012,3 hPa 0,0 l/m 0 min 0 min 0 W/m 3,2 km/h (1 Bft) 97,87 %
13.08.2020 06:36 20,4 C 18,9 C 18,3 C 96 % 1012,4 hPa 0,0 l/m 0 min 0 min 1 W/m 0,0 km/h (0 Bft) 95,65 %
13.08.2020 06:38 20,4 C 18,9 C 18,3 C 96 % 1012,3 hPa 0,0 l/m 0 min 0 min 5 W/m 9,7 km/h (2 Bft) 97,87 %
13.08.2020 06:40 20,4 C 18,9 C 18,3 C 96 % 1012,3 hPa 0,0 l/m 0 min 0 min 5 W/m 6,4 km/h (2 Bft) 95,74 %
13.08.2020 06:42 20,4 C 18,9 C 18,3 C 96 % 1012,3 hPa 0,0 l/m 0 min 0 min 5 W/m 3,2 km/h (1 Bft) 97,87 %
13.08.2020 06:44 20,4 C 18,9 C 18,3 C 96 % 1012,3 hPa 0,0 l/m 0 min 0 min 7 W/m 3,2 km/h (1 Bft) 95,74 %
13.08.2020 06:46 20,4 C 18,9 C 18,3 C 96 % 1012,2 hPa 0,0 l/m 0 min 0 min 7 W/m 3,2 km/h (1 Bft) 97,83 %
13.08.2020 06:48 20,4 C 18,9 C 18,3 C 96 % 1012,2 hPa 0,0 l/m 0 min 0 min 7 W/m 6,4 km/h (2 Bft) 95,74 %
13.08.2020 06:50 20,4 C 18,9 C 18,3 C 96 % 1012,2 hPa 0,0 l/m 0 min 0 min 7 W/m 6,4 km/h (2 Bft) 97,87 %
13.08.2020 06:52 20,4 C 18,9 C 18,3 C 96 % 1012,2 hPa 0,0 l/m 0 min 0 min 8 W/m 0,0 km/h (0 Bft) 100,00 %
13.08.2020 06:54 20,4 C 18,9 C 18,3 C 96 % 1012,2 hPa 0,0 l/m 0 min 0 min 9 W/m 3,2 km/h (1 Bft) 100,00 %
13.08.2020 06:56 20,4 C 18,9 C 18,3 C 96 % 1012,2 hPa 0,0 l/m 0 min 0 min 9 W/m 6,4 km/h (2 Bft) 100,00 %
13.08.2020 06:58 20,4 C 18,9 C 18,3 C 96 % 1012,2 hPa 0,0 l/m 0 min 0 min 9 W/m 3,2 km/h (1 Bft) 100,00 %
13.08.2020 07:00 20,4 C 18,9 C 18,3 C 96 % 1012,3 hPa 0,0 l/m 0 min 0 min 9 W/m 3,2 km/h (1 Bft) 100,00 %
13.08.2020 07:02 20,4 C 18,9 C 18,3 C 96 % 1012,2 hPa 0,0 l/m 0 min 0 min 11 W/m 6,4 km/h (2 Bft) 100,00 %
13.08.2020 07:04 20,4 C 18,9 C 18,3 C 96 % 1012,1 hPa 0,0 l/m 0 min 0 min 11 W/m 3,2 km/h (1 Bft) 97,87 %
13.08.2020 07:06 20,4 C 18,9 C 18,3 C 96 % 1012,1 hPa 0,0 l/m 0 min 0 min 12 W/m 3,2 km/h (1 Bft) 97,87 %
13.08.2020 07:08 20,4 C 18,9 C 18,3 C 96 % 1012,2 hPa 0,0 l/m 0 min 0 min 12 W/m 6,4 km/h (2 Bft) 93,62 %
13.08.2020 07:10 20,4 C 19,4 C 18,3 C 96 % 1012,2 hPa 0,0 l/m 0 min 0 min 12 W/m 3,2 km/h (1 Bft) 97,83 %
13.08.2020 07:12 20,4 C 19,4 C 18,3 C 96 % 1012,2 hPa 0,0 l/m 0 min 0 min 14 W/m 6,4 km/h (2 Bft) 97,87 %
13.08.2020 07:14 20,4 C 19,4 C 18,3 C 96 % 1012,2 hPa 0,0 l/m 0 min 0 min 14 W/m 3,2 km/h (1 Bft) 95,74 %
13.08.2020 07:16 20,4 C 19,4 C 18,3 C 96 % 1012,2 hPa 0,0 l/m 0 min 0 min 16 W/m 0,0 km/h (0 Bft) 97,87 %
13.08.2020 07:18 20,4 C 19,4 C 18,9 C 96 % 1012,1 hPa 0,0 l/m 0 min 0 min 16 W/m 0,0 km/h (0 Bft) 97,87 %
13.08.2020 07:20 20,4 C 19,4 C 18,9 C 96 % 1012,1 hPa 0,0 l/m 0 min 0 min 16 W/m 0,0 km/h (0 Bft) 97,87 %
13.08.2020 07:22 20,4 C 18,9 C 18,9 C 96 % 1012,0 hPa 0,0 l/m 0 min 0 min 18 W/m 0,0 km/h (0 Bft) 97,83 %
13.08.2020 07:24 20,5 C 18,9 C 18,9 C 96 % 1012,0 hPa 0,0 l/m 0 min 0 min 18 W/m 0,0 km/h (0 Bft) 97,87 %
13.08.2020 07:26 20,5 C 18,9 C 18,9 C 96 % 1012,0 hPa 0,0 l/m 0 min 0 min 18 W/m 0,0 km/h (0 Bft) 97,87 %
13.08.2020 07:28 20,5 C 18,9 C 18,9 C 96 % 1012,0 hPa 0,0 l/m 0 min 0 min 19 W/m 0,0 km/h (0 Bft) 97,87 %
13.08.2020 07:30 20,5 C 19,4 C 18,9 C 96 % 1012,0 hPa 0,0 l/m 0 min 0 min 19 W/m 0,0 km/h (0 Bft) 97,87 %
13.08.2020 07:32 20,6 C 19,4 C 18,9 C 96 % 1012,0 hPa 0,0 l/m 0 min 0 min 21 W/m 0,0 km/h (0 Bft) 97,87 %
13.08.2020 07:34 20,6 C 19,4 C 18,9 C 96 % 1012,0 hPa 0,0 l/m 0 min 0 min 23 W/m 3,2 km/h (1 Bft) 97,83 %
13.08.2020 07:36 20,6 C 19,4 C 18,3 C 96 % 1011,8 hPa 0,0 l/m 0 min 0 min 26 W/m 3,2 km/h (1 Bft) 97,87 %
13.08.2020 07:38 20,6 C 19,4 C 18,9 C 96 % 1011,9 hPa 0,0 l/m 0 min 0 min 29 W/m 0,0 km/h (0 Bft) 95,74 %
13.08.2020 07:40 20,6 C 19,4 C 18,9 C 96 % 1011,8 hPa 0,0 l/m 0 min 0 min 33 W/m 0,0 km/h (0 Bft) 97,87 %
13.08.2020 07:42 20,6 C 19,4 C 18,9 C 96 % 1011,7 hPa 0,0 l/m 0 min 0 min 40 W/m 0,0 km/h (0 Bft) 97,87 %
13.08.2020 07:44 20,6 C 19,4 C 18,9 C 96 % 1011,7 hPa 0,0 l/m 0 min 0 min 47 W/m 0,0 km/h (0 Bft) 97,87 %
13.08.2020 07:46 20,6 C 19,4 C 18,9 C 96 % 1011,6 hPa 0,0 l/m 0 min 0 min 52 W/m 0,0 km/h (0 Bft) 97,83 %
13.08.2020 07:48 20,6 C 19,4 C 18,9 C 96 % 1011,6 hPa 0,0 l/m 0 min 0 min 54 W/m 0,0 km/h (0 Bft) 97,87 %
13.08.2020 07:50 20,6 C 20,0 C 19,4 C 96 % 1011,6 hPa 0,0 l/m 0 min 0 min 54 W/m 0,0 km/h (0 Bft) 97,87 %
13.08.2020 07:52 20,7 C 20,0 C 19,4 C 96 % 1011,6 hPa 0,0 l/m 0 min 0 min 50 W/m 0,0 km/h (0 Bft) 97,87 %
13.08.2020 07:54 20,7 C 20,0 C 19,4 C 96 % 1011,6 hPa 0,0 l/m 0 min 0 min 44 W/m 0,0 km/h (0 Bft) 97,87 %
13.08.2020 07:56 20,7 C 20,0 C 19,4 C 96 % 1011,6 hPa 0,0 l/m 0 min 0 min 38 W/m 0,0 km/h (0 Bft) 97,83 %
13.08.2020 07:58 20,7 C 20,0 C 19,4 C 96 % 1011,6 hPa 0,0 l/m 0 min 0 min 35 W/m 0,0 km/h (0 Bft) 95,74 %
13.08.2020 08:00 20,8 C 20,0 C 19,4 C 97 % 1011,5 hPa 0,0 l/m 0 min 0 min 33 W/m 0,0 km/h (0 Bft) 95,74 %
13.08.2020 08:02 20,8 C 19,4 C 19,4 C 97 % 1011,4 hPa 0,0 l/m 0 min 0 min 33 W/m 0,0 km/h (0 Bft) 97,87 %
13.08.2020 08:04 20,8 C 20,0 C 19,4 C 97 % 1011,5 hPa 0,0 l/m 0 min 0 min 33 W/m 0,0 km/h (0 Bft) 97,87 %
13.08.2020 08:06 20,8 C 20,0 C 19,4 C 97 % 1011,5 hPa 0,0 l/m 0 min 0 min 35 W/m 0,0 km/h (0 Bft) 97,87 %
13.08.2020 08:08 20,9 C 20,0 C 19,4 C 97 % 1011,5 hPa 0,0 l/m 0 min 0 min 35 W/m 0,0 km/h (0 Bft) 100,00 %
13.08.2020 08:10 20,9 C 20,0 C 19,4 C 97 % 1011,6 hPa 0,0 l/m 0 min 0 min 37 W/m 3,2 km/h (1 Bft) 100,00 %
13.08.2020 08:12 20,9 C 20,0 C 19,4 C 97 % 1011,6 hPa 0,0 l/m 0 min 0 min 40 W/m 0,0 km/h (0 Bft) 97,87 %
13.08.2020 08:14 20,9 C 20,0 C 19,4 C 97 % 1011,7 hPa 0,0 l/m 0 min 0 min 45 W/m 0,0 km/h (0 Bft) 95,74 %
13.08.2020 08:16 20,9 C 20,0 C 19,4 C 97 % 1011,8 hPa 0,0 l/m 0 min 0 min 49 W/m 0,0 km/h (0 Bft) 100,00 %
13.08.2020 08:18 20,9 C 20,0 C 19,4 C 97 % 1011,8 hPa 0,0 l/m 0 min 0 min 53 W/m 0,0 km/h (0 Bft) 100,00 %
13.08.2020 08:20 20,9 C 20,6 C 19,4 C 97 % 1011,8 hPa 0,0 l/m 0 min 0 min 56 W/m 0,0 km/h (0 Bft) 97,83 %
13.08.2020 08:22 21,0 C 20,6 C 19,4 C 97 % 1011,8 hPa 0,0 l/m 0 min 0 min 58 W/m 0,0 km/h (0 Bft) 97,87 %
13.08.2020 08:24 21,0 C 20,6 C 19,4 C 97 % 1011,8 hPa 0,0 l/m 0 min 0 min 62 W/m 0,0 km/h (0 Bft) 95,74 %
13.08.2020 08:26 21,1 C 20,6 C 19,4 C 97 % 1011,7 hPa 0,0 l/m 0 min 0 min 68 W/m 3,2 km/h (1 Bft) 97,87 %
13.08.2020 08:28 21,1 C 20,6 C 19,4 C 97 % 1011,8 hPa 0,0 l/m 0 min 0 min 73 W/m 0,0 km/h (0 Bft) 97,87 %
13.08.2020 08:30 21,1 C 20,6 C 19,4 C 97 % 1011,8 hPa 0,0 l/m 0 min 0 min 79 W/m 0,0 km/h (0 Bft) 97,87 %
13.08.2020 08:32 21,1 C 20,6 C 19,4 C 97 % 1011,8 hPa 0,0 l/m 0 min 0 min 83 W/m 0,0 km/h (0 Bft) 97,83 %
13.08.2020 08:34 21,1 C 20,6 C 19,4 C 97 % 1011,8 hPa 0,0 l/m 0 min 0 min 88 W/m 0,0 km/h (0 Bft) 97,87 %
13.08.2020 08:36 21,1 C 20,6 C 19,4 C 97 % 1011,8 hPa 0,0 l/m 0 min 0 min 94 W/m 0,0 km/h (0 Bft) 97,78 %
13.08.2020 08:38 21,2 C 21,1 C 20,0 C 97 % 1011,9 hPa 0,0 l/m 0 min 0 min 99 W/m 0,0 km/h (0 Bft) 96,55 %
13.08.2020 08:40 21,2 C 21,1 C 20,0 C 97 % 1011,8 hPa 0,0 l/m 0 min 0 min 102 W/m 0,0 km/h (0 Bft) 97,14 %
13.08.2020 08:42 21,2 C 21,1 C 20,0 C 97 % 1011,8 hPa 0,0 l/m 0 min 0 min 102 W/m 0,0 km/h (0 Bft) 95,74 %
13.08.2020 08:44 21,2 C 21,1 C 20,0 C 97 % 1011,8 hPa 0,0 l/m 0 min 0 min 100 W/m 0,0 km/h (0 Bft) 97,87 %
13.08.2020 08:46 21,3 C 21,1 C 20,0 C 97 % 1011,8 hPa 0,0 l/m 0 min 0 min 98 W/m 0,0 km/h (0 Bft) 95,74 %
13.08.2020 08:48 21,3 C 21,1 C 20,0 C 97 % 1011,9 hPa 0,0 l/m 0 min 0 min 97 W/m 3,2 km/h (1 Bft) 95,74 %
13.08.2020 08:50 21,3 C 21,1 C 20,0 C 97 % 1011,9 hPa 0,0 l/m 0 min 0 min 97 W/m 0,0 km/h (0 Bft) 95,65 %
13.08.2020 08:52 21,3 C 21,1 C 20,0 C 97 % 1011,9 hPa 0,0 l/m 0 min 0 min 97 W/m 0,0 km/h (0 Bft) 95,74 %
13.08.2020 08:54 21,4 C 21,1 C 20,0 C 97 % 1012,0 hPa 0,0 l/m 0 min 0 min 100 W/m 0,0 km/h (0 Bft) 95,74 %
13.08.2020 08:56 21,4 C 21,1 C 20,0 C 97 % 1011,9 hPa 0,0 l/m 0 min 0 min 104 W/m 3,2 km/h (1 Bft) 93,62 %
13.08.2020 08:58 21,4 C 21,1 C 20,0 C 97 % 1011,9 hPa 0,0 l/m 0 min 0 min 107 W/m 0,0 km/h (0 Bft) 95,74 %
13.08.2020 09:00 21,4 C 21,1 C 20,0 C 97 % 1011,9 hPa 0,0 l/m 0 min 0 min 107 W/m 0,0 km/h (0 Bft) 93,62 %
13.08.2020 09:02 21,4 C 21,1 C 20,0 C 97 % 1011,9 hPa 0,0 l/m 0 min 0 min 107 W/m 0,0 km/h (0 Bft) 95,65 %
13.08.2020 09:06 21,5 C 21,1 C 20,0 C 97 % 1011,9 hPa 0,0 l/m 0 min 0 min 109 W/m 0,0 km/h (0 Bft) 95,83 %
13.08.2020 09:10 21,5 C 21,7 C 20,0 C 97 % 1011,9 hPa 0,0 l/m 0 min 0 min 106 W/m 3,2 km/h (1 Bft) 95,45 %
13.08.2020 09:12 21,5 C 21,1 C 20,0 C 97 % 1011,9 hPa 0,0 l/m 0 min 0 min 105 W/m 6,4 km/h (2 Bft) 91,49 %
13.08.2020 09:14 21,6 C 21,7 C 20,0 C 97 % 1011,9 hPa 0,0 l/m 0 min 0 min 105 W/m 0,0 km/h (0 Bft) 95,74 %
13.08.2020 09:16 21,6 C 21,7 C 20,0 C 97 % 1011,9 hPa 0,0 l/m 0 min 0 min 106 W/m 3,2 km/h (1 Bft) 97,14 %
13.08.2020 09:18 21,6 C 21,7 C 20,0 C 96 % 1011,9 hPa 0,0 l/m 0 min 0 min 108 W/m 0,0 km/h (0 Bft) 95,83 %
13.08.2020 09:20 21,6 C 21,7 C 20,0 C 96 % 1012,0 hPa 0,0 l/m 0 min 0 min 112 W/m 3,2 km/h (1 Bft) 97,92 %
13.08.2020 09:22 21,6 C 22,2 C 20,0 C 96 % 1011,9 hPa 0,0 l/m 0 min 0 min 114 W/m 0,0 km/h (0 Bft) 97,87 %
13.08.2020 09:24 21,7 C 22,2 C 20,0 C 96 % 1011,9 hPa 0,0 l/m 0 min 0 min 112 W/m 3,2 km/h (1 Bft) 95,74 %
13.08.2020 09:26 21,7 C 22,2 C 20,0 C 96 % 1011,9 hPa 0,0 l/m 0 min 0 min 107 W/m 0,0 km/h (0 Bft) 96,30 %
13.08.2020 09:28 21,7 C 22,2 C 20,0 C 96 % 1011,9 hPa 0,0 l/m 0 min 0 min 106 W/m 0,0 km/h (0 Bft) 100,00 %
13.08.2020 09:30 21,8 C 22,2 C 20,0 C 95 % 1012,0 hPa 0,0 l/m 0 min 0 min 110 W/m 3,2 km/h (1 Bft) 100,00 %
13.08.2020 09:32 21,8 C 22,2 C 20,0 C 95 % 1012,0 hPa 0,0 l/m 0 min 0 min 116 W/m 12,9 km/h (3 Bft) 95,83 %
13.08.2020 09:34 21,8 C 22,2 C 20,0 C 95 % 1012,1 hPa 0,0 l/m 0 min 0 min 123 W/m 3,2 km/h (1 Bft) 97,87 %
13.08.2020 09:36 21,9 C 22,8 C 20,0 C 95 % 1012,1 hPa 0,0 l/m 0 min 0 min 128 W/m 0,0 km/h (0 Bft) 100,00 %
13.08.2020 09:38 21,9 C 22,8 C 20,0 C 95 % 1012,1 hPa 0,0 l/m 0 min 0 min 136 W/m 3,2 km/h (1 Bft) 100,00 %
13.08.2020 09:40 21,9 C 22,8 C 20,0 C 94 % 1012,1 hPa 0,0 l/m 0 min 0 min 148 W/m 0,0 km/h (0 Bft) 97,87 %
13.08.2020 09:42 21,9 C 22,8 C 20,0 C 94 % 1012,0 hPa 0,0 l/m 0 min 0 min 162 W/m 3,2 km/h (1 Bft) 100,00 %
13.08.2020 09:44 21,9 C 23,3 C 20,0 C 94 % 1012,0 hPa 0,0 l/m 0 min 0 min 178 W/m 0,0 km/h (0 Bft) 100,00 %
13.08.2020 09:46 22,0 C 23,3 C 20,0 C 93 % 1012,1 hPa 0,0 l/m 0 min 0 min 171 W/m 3,2 km/h (1 Bft) 100,00 %
13.08.2020 09:48 22,1 C 23,3 C 20,0 C 93 % 1012,1 hPa 0,0 l/m 0 min 0 min 154 W/m 3,2 km/h (1 Bft) 100,00 %
13.08.2020 09:50 22,1 C 23,3 C 20,0 C 93 % 1012,1 hPa 0,0 l/m 0 min 0 min 148 W/m 0,0 km/h (0 Bft) 100,00 %
13.08.2020 09:52 22,1 C 23,3 C 20,6 C 93 % 1012,1 hPa 0,0 l/m 0 min 0 min 150 W/m 0,0 km/h (0 Bft) 97,96 %
13.08.2020 09:54 22,2 C 22,8 C 20,0 C 93 % 1012,0 hPa 0,0 l/m 0 min 0 min 147 W/m 12,9 km/h (3 Bft) 100,00 %
13.08.2020 09:56 22,2 C 23,3 C 20,0 C 93 % 1012,0 hPa 0,0 l/m 0 min 0 min 143 W/m 3,2 km/h (1 Bft) 98,15 %
13.08.2020 09:58 22,3 C 23,3 C 20,0 C 93 % 1012,0 hPa 0,0 l/m 0 min 0 min 143 W/m 0,0 km/h (0 Bft) 100,00 %
13.08.2020 10:00 22,3 C 23,3 C 20,0 C 92 % 1012,0 hPa 0,0 l/m 0 min 0 min 144 W/m 0,0 km/h (0 Bft) 100,00 %
13.08.2020 10:02 22,3 C 23,3 C 20,0 C 92 % 1011,9 hPa 0,0 l/m 0 min 0 min 148 W/m 3,2 km/h (1 Bft) 97,87 %
13.08.2020 10:04 22,4 C 23,3 C 20,0 C 92 % 1011,9 hPa 0,0 l/m 0 min 0 min 150 W/m 0,0 km/h (0 Bft) 100,00 %
13.08.2020 10:06 22,4 C 23,3 C 20,0 C 92 % 1011,8 hPa 0,0 l/m 0 min 0 min 155 W/m 6,4 km/h (2 Bft) 100,00 %
13.08.2020 10:08 22,4 C 23,3 C 20,0 C 91 % 1011,8 hPa 0,0 l/m 0 min 0 min 162 W/m 3,2 km/h (1 Bft) 100,00 %
13.08.2020 10:10 22,5 C 23,3 C 20,6 C 91 % 1011,7 hPa 0,0 l/m 0 min 0 min 173 W/m 0,0 km/h (0 Bft) 100,00 %
13.08.2020 10:12 22,6 C 23,9 C 20,6 C 91 % 1011,7 hPa 0,0 l/m 0 min 0 min 188 W/m 6,4 km/h (2 Bft) 97,96 %
13.08.2020 10:14 22,6 C 23,9 C 20,6 C 91 % 1011,6 hPa 0,0 l/m 0 min 0 min 208 W/m 0,0 km/h (0 Bft) 100,00 %
13.08.2020 10:16 22,6 C 23,9 C 20,6 C 91 % 1011,6 hPa 0,0 l/m 0 min 0 min 234 W/m 6,4 km/h (2 Bft) 100,00 %
13.08.2020 10:18 22,7 C 24,4 C 21,1 C 91 % 1011,7 hPa 0,0 l/m 0 min 0 min 262 W/m 0,0 km/h (0 Bft) 96,30 %
13.08.2020 10:20 22,7 C 25,0 C 21,1 C 90 % 1011,8 hPa 0,0 l/m 0 min 0 min 277 W/m 0,0 km/h (0 Bft) 97,37 %
13.08.2020 10:22 22,7 C 25,0 C 21,1 C 90 % 1011,8 hPa 0,0 l/m 0 min 0 min 277 W/m 0,0 km/h (0 Bft) 97,96 %
13.08.2020 10:24 22,8 C 25,6 C 21,7 C 90 % 1011,8 hPa 0,0 l/m 0 min 0 min 284 W/m 3,2 km/h (1 Bft) 97,87 %
13.08.2020 10:26 22,9 C 25,0 C 21,7 C 90 % 1011,8 hPa 0,0 l/m 0 min 0 min 280 W/m 12,9 km/h (3 Bft) 98,15 %
13.08.2020 10:28 22,9 C 25,6 C 21,7 C 89 % 1011,8 hPa 0,0 l/m 0 min 0 min 273 W/m 6,4 km/h (2 Bft) 97,37 %
13.08.2020 10:30 23,0 C 25,6 C 21,7 C 89 % 1011,8 hPa 0,0 l/m 2 min 0 min 317 W/m 12,9 km/h (3 Bft) 97,92 %
13.08.2020 10:32 23,1 C 26,7 C 22,8 C 89 % 1011,9 hPa 0,0 l/m 2 min 0 min 363 W/m 12,9 km/h (3 Bft) 95,92 %
13.08.2020 10:34 23,2 C 27,2 C 23,3 C 89 % 1012,0 hPa 0,0 l/m 2 min 0 min 367 W/m 6,4 km/h (2 Bft) 97,87 %
13.08.2020 10:36 23,3 C 27,2 C 23,3 C 89 % 1012,0 hPa 0,0 l/m 2 min 0 min 357 W/m 6,4 km/h (2 Bft) 98,15 %
13.08.2020 10:38 23,4 C 27,2 C 22,8 C 89 % 1012,0 hPa 0,0 l/m 0 min 0 min 301 W/m 6,4 km/h (2 Bft) 97,83 %
13.08.2020 10:40 23,5 C 26,7 C 22,2 C 88 % 1012,0 hPa 0,0 l/m 0 min 0 min 272 W/m 3,2 km/h (1 Bft) 97,22 %
13.08.2020 10:42 23,6 C 26,1 C 21,7 C 88 % 1012,0 hPa 0,0 l/m 0 min 0 min 259 W/m 6,4 km/h (2 Bft) 97,92 %
13.08.2020 10:44 23,7 C 26,1 C 21,7 C 87 % 1012,0 hPa 0,0 l/m 0 min 0 min 243 W/m 3,2 km/h (1 Bft) 96,00 %
13.08.2020 10:46 23,7 C 25,6 C 21,7 C 87 % 1012,0 hPa 0,0 l/m 0 min 0 min 231 W/m 0,0 km/h (0 Bft) 97,87 %
13.08.2020 10:48 23,8 C 25,6 C 21,7 C 86 % 1012,0 hPa 0,0 l/m 0 min 0 min 227 W/m 3,2 km/h (1 Bft) 97,83 %
13.08.2020 10:50 23,8 C 26,1 C 21,7 C 86 % 1012,0 hPa 0,0 l/m 0 min 0 min 229 W/m 0,0 km/h (0 Bft) 97,92 %
13.08.2020 10:52 23,9 C 26,1 C 21,7 C 86 % 1012,0 hPa 0,0 l/m 0 min 0 min 240 W/m 0,0 km/h (0 Bft) 95,65 %
13.08.2020 10:54 24,0 C 26,1 C 21,7 C 86 % 1012,0 hPa 0,0 l/m 0 min 0 min 245 W/m 16,1 km/h (3 Bft) 97,87 %
13.08.2020 10:56 24,1 C 25,6 C 21,7 C 85 % 1012,1 hPa 0,0 l/m 0 min 0 min 231 W/m 12,9 km/h (3 Bft) 97,67 %
13.08.2020 10:58 24,1 C 26,1 C 21,7 C 85 % 1012,2 hPa 0,0 l/m 0 min 0 min 265 W/m 3,2 km/h (1 Bft) 98,00 %
13.08.2020 11:00 24,2 C 26,1 C 21,7 C 85 % 1012,2 hPa 0,0 l/m 2 min 0 min 334 W/m 12,9 km/h (3 Bft) 97,92 %
13.08.2020 11:02 24,3 C 26,1 C 21,7 C 84 % 1012,2 hPa 0,0 l/m 0 min 0 min 251 W/m 6,4 km/h (2 Bft) 96,15 %
13.08.2020 11:04 24,3 C 26,1 C 21,7 C 84 % 1012,2 hPa 0,0 l/m 0 min 0 min 273 W/m 3,2 km/h (1 Bft) 100,00 %
13.08.2020 11:06 24,4 C 26,7 C 21,7 C 85 % 1012,2 hPa 0,0 l/m 0 min 0 min 283 W/m 3,2 km/h (1 Bft) 96,00 %
13.08.2020 11:08 24,4 C 28,3 C 22,2 C 84 % 1012,2 hPa 0,0 l/m 2 min 0 min 443 W/m 0,0 km/h (0 Bft) 97,87 %
13.08.2020 11:10 24,5 C 28,9 C 22,2 C 84 % 1012,2 hPa 0,0 l/m 2 min 0 min 593 W/m 6,4 km/h (2 Bft) 97,87 %
13.08.2020 11:12 24,6 C 30,6 C 22,2 C 85 % 1012,1 hPa 0,0 l/m 2 min 0 min 710 W/m 6,4 km/h (2 Bft) 96,23 %
13.08.2020 11:14 24,7 C 31,1 C 22,2 C 84 % 1012,1 hPa 0,0 l/m 2 min 0 min 744 W/m 3,2 km/h (1 Bft) 94,74 %
13.08.2020 11:16 24,8 C 31,7 C 22,2 C 84 % 1012,1 hPa 0,0 l/m 2 min 0 min 732 W/m 0,0 km/h (0 Bft) 93,88 %
13.08.2020 11:18 25,0 C 32,2 C 22,8 C 84 % 1012,1 hPa 0,0 l/m 2 min 0 min 727 W/m 9,7 km/h (2 Bft) 93,62 %
13.08.2020 11:20 25,2 C 32,2 C 22,8 C 84 % 1012,1 hPa 0,2 l/m 2 min 0 min 724 W/m 12,9 km/h (3 Bft) 98,11 %
13.08.2020 11:22 25,3 C 32,2 C 22,8 C 83 % 1012,1 hPa 0,0 l/m 2 min 0 min 720 W/m 12,9 km/h (3 Bft) 97,37 %
13.08.2020 11:24 25,4 C 33,3 C 22,8 C 83 % 1012,1 hPa 0,0 l/m 2 min 0 min 707 W/m 9,7 km/h (2 Bft) 95,74 %
13.08.2020 11:26 25,6 C 32,8 C 22,8 C 82 % 1012,1 hPa 0,0 l/m 2 min 0 min 722 W/m 12,9 km/h (3 Bft) 95,92 %
13.08.2020 11:28 25,8 C 32,8 C 22,8 C 82 % 1012,1 hPa 0,0 l/m 2 min 0 min 722 W/m 16,1 km/h (3 Bft) 97,87 %
13.08.2020 11:30 25,9 C 32,2 C 22,8 C 81 % 1012,1 hPa 0,0 l/m 2 min 0 min 720 W/m 16,1 km/h (3 Bft) 95,74 %
13.08.2020 11:32 26,1 C 33,3 C 22,8 C 81 % 1012,1 hPa 0,0 l/m 2 min 0 min 713 W/m 12,9 km/h (3 Bft) 97,87 %
13.08.2020 11:34 26,3 C 33,3 C 22,8 C 81 % 1012,1 hPa 0,0 l/m 2 min 0 min 723 W/m 16,1 km/h (3 Bft) 95,74 %
13.08.2020 11:36 26,4 C 33,3 C 23,3 C 80 % 1012,1 hPa 0,0 l/m 2 min 0 min 719 W/m 12,9 km/h (3 Bft) 95,74 %
13.08.2020 11:38 26,6 C 33,3 C 22,8 C 79 % 1012,0 hPa 0,0 l/m 2 min 0 min 695 W/m 12,9 km/h (3 Bft) 95,65 %
13.08.2020 11:40 26,7 C 33,9 C 23,3 C 79 % 1012,0 hPa 0,0 l/m 2 min 0 min 716 W/m 12,9 km/h (3 Bft) 95,74 %
13.08.2020 11:42 26,8 C 33,9 C 23,3 C 78 % 1012,1 hPa 0,0 l/m 2 min 0 min 726 W/m 12,9 km/h (3 Bft) 95,74 %
13.08.2020 11:44 26,9 C 32,8 C 23,3 C 78 % 1012,1 hPa 0,0 l/m 2 min 0 min 746 W/m 12,9 km/h (3 Bft) 95,74 %
13.08.2020 11:46 27,1 C 33,3 C 23,3 C 77 % 1012,1 hPa 0,0 l/m 2 min 0 min 752 W/m 12,9 km/h (3 Bft) 93,62 %
13.08.2020 11:48 27,2 C 32,8 C 23,9 C 76 % 1012,1 hPa 0,0 l/m 2 min 0 min 733 W/m 12,9 km/h (3 Bft) 97,87 %
13.08.2020 11:50 27,4 C 33,3 C 23,9 C 75 % 1012,1 hPa 0,0 l/m 2 min 0 min 788 W/m 12,9 km/h (3 Bft) 95,65 %
13.08.2020 11:52 27,6 C 33,9 C 23,9 C 75 % 1012,1 hPa 0,0 l/m 2 min 0 min 793 W/m 16,1 km/h (3 Bft) 93,62 %
13.08.2020 11:54 27,7 C 33,3 C 24,4 C 74 % 1012,1 hPa 0,0 l/m 2 min 0 min 754 W/m 16,1 km/h (3 Bft) 95,74 %
13.08.2020 11:56 27,8 C 32,8 C 24,4 C 74 % 1012,0 hPa 0,0 l/m 2 min 0 min 643 W/m 16,1 km/h (3 Bft) 97,87 %
13.08.2020 11:58 27,9 C 33,3 C 25,0 C 74 % 1012,0 hPa 0,0 l/m 2 min 0 min 755 W/m 12,9 km/h (3 Bft) 93,62 %
13.08.2020 12:00 28,0 C 33,3 C 25,6 C 74 % 1012,0 hPa 0,0 l/m 2 min 0 min 713 W/m 12,9 km/h (3 Bft) 98,11 %
13.08.2020 12:02 28,1 C 32,8 C 25,6 C 73 % 1012,0 hPa 0,0 l/m 2 min 0 min 686 W/m 12,9 km/h (3 Bft) 92,11 %
13.08.2020 12:04 28,2 C 33,3 C 25,6 C 73 % 1011,9 hPa 0,0 l/m 2 min 0 min 653 W/m 12,9 km/h (3 Bft) 97,96 %
13.08.2020 12:08 28,4 C 35,0 C 26,1 C 73 % 1011,9 hPa 0,0 l/m 4 min 0 min 693 W/m 6,4 km/h (2 Bft) 95,74 %
13.08.2020 12:10 28,5 C 33,9 C 26,1 C 71 % 1011,9 hPa 0,0 l/m 2 min 0 min 759 W/m 16,1 km/h (3 Bft) 97,62 %
13.08.2020 12:12 28,6 C 34,4 C 26,1 C 72 % 1012,0 hPa 0,0 l/m 2 min 0 min 776 W/m 9,7 km/h (2 Bft) 97,92 %
13.08.2020 12:14 28,7 C 35,6 C 26,1 C 72 % 1011,9 hPa 0,0 l/m 2 min 0 min 812 W/m 6,4 km/h (2 Bft) 95,92 %
13.08.2020 12:16 28,8 C 35,6 C 26,7 C 72 % 1011,9 hPa 0,0 l/m 2 min 0 min 820 W/m 3,2 km/h (1 Bft) 97,92 %
13.08.2020 12:18 28,9 C 36,1 C 26,7 C 73 % 1011,9 hPa 0,0 l/m 2 min 0 min 799 W/m 6,4 km/h (2 Bft) 97,87 %
13.08.2020 12:20 29,0 C 35,0 C 26,7 C 70 % 1011,9 hPa 0,0 l/m 2 min 0 min 763 W/m 12,9 km/h (3 Bft) 97,67 %
13.08.2020 12:22 29,1 C 35,0 C 26,7 C 70 % 1011,9 hPa 0,0 l/m 2 min 0 min 727 W/m 12,9 km/h (3 Bft) 98,00 %
13.08.2020 12:24 29,2 C 34,4 C 26,7 C 69 % 1011,8 hPa 0,0 l/m 2 min 0 min 711 W/m 19,3 km/h (3 Bft) 95,74 %
13.08.2020 12:26 29,2 C 34,4 C 26,7 C 68 % 1011,8 hPa 0,0 l/m 2 min 0 min 769 W/m 12,9 km/h (3 Bft) 100,00 %
13.08.2020 12:28 29,3 C 34,4 C 26,7 C 68 % 1011,8 hPa 0,0 l/m 2 min 0 min 749 W/m 6,4 km/h (2 Bft) 100,00 %
13.08.2020 12:30 29,4 C 34,4 C 26,7 C 68 % 1011,8 hPa 0,0 l/m 2 min 0 min 784 W/m 19,3 km/h (3 Bft) 100,00 %
13.08.2020 12:32 29,4 C 35,0 C 26,7 C 68 % 1011,7 hPa 0,0 l/m 2 min 0 min 746 W/m 6,4 km/h (2 Bft) 100,00 %
13.08.2020 12:34 29,6 C 35,6 C 26,7 C 69 % 1011,7 hPa 0,0 l/m 2 min 0 min 697 W/m 3,2 km/h (1 Bft) 100,00 %
13.08.2020 12:36 29,6 C 35,0 C 26,7 C 68 % 1011,7 hPa 0,0 l/m 2 min 0 min 702 W/m 12,9 km/h (3 Bft) 100,00 %
13.08.2020 12:38 29,7 C 34,4 C 27,2 C 66 % 1011,8 hPa 0,0 l/m 2 min 0 min 732 W/m 16,1 km/h (3 Bft) 98,00 %
13.08.2020 12:40 29,7 C 35,0 C 27,2 C 66 % 1011,8 hPa 0,0 l/m 2 min 0 min 779 W/m 9,7 km/h (2 Bft) 100,00 %
13.08.2020 12:42 29,8 C 35,6 C 27,2 C 67 % 1011,8 hPa 0,0 l/m 2 min 0 min 795 W/m 12,9 km/h (3 Bft) 100,00 %
13.08.2020 12:44 29,9 C 35,6 C 27,2 C 67 % 1011,8 hPa 0,0 l/m 2 min 0 min 797 W/m 12,9 km/h (3 Bft) 100,00 %
13.08.2020 12:46 29,9 C 36,1 C 27,2 C 67 % 1011,7 hPa 0,0 l/m 2 min 0 min 786 W/m 12,9 km/h (3 Bft) 100,00 %
13.08.2020 12:48 30,1 C 36,1 C 27,2 C 67 % 1011,7 hPa 0,0 l/m 2 min 0 min 775 W/m 12,9 km/h (3 Bft) 100,00 %
13.08.2020 12:50 30,2 C 36,1 C 27,2 C 67 % 1011,6 hPa 0,0 l/m 2 min 0 min 803 W/m 6,4 km/h (2 Bft) 100,00 %
13.08.2020 12:52 30,3 C 37,2 C 27,2 C 68 % 1011,6 hPa 0,0 l/m 2 min 0 min 815 W/m 6,4 km/h (2 Bft) 100,00 %
13.08.2020 12:54 30,3 C 36,7 C 27,2 C 66 % 1011,6 hPa 0,0 l/m 2 min 0 min 823 W/m 12,9 km/h (3 Bft) 100,00 %
13.08.2020 12:56 30,4 C 36,1 C 27,2 C 64 % 1011,6 hPa 0,0 l/m 2 min 0 min 779 W/m 12,9 km/h (3 Bft) 98,00 %
13.08.2020 12:58 30,4 C 35,0 C 27,2 C 62 % 1011,6 hPa 0,0 l/m 2 min 0 min 721 W/m 19,3 km/h (3 Bft) 100,00 %
13.08.2020 13:00 30,6 C 35,0 C 27,2 C 63 % 1011,6 hPa 0,0 l/m 2 min 0 min 714 W/m 16,1 km/h (3 Bft) 97,87 %
13.08.2020 13:02 30,6 C 36,1 C 27,8 C 64 % 1011,6 hPa 0,0 l/m 2 min 0 min 767 W/m 12,9 km/h (3 Bft) 97,87 %
13.08.2020 13:04 30,7 C 36,1 C 27,8 C 63 % 1011,6 hPa 0,0 l/m 2 min 0 min 772 W/m 12,9 km/h (3 Bft) 100,00 %
13.08.2020 13:06 30,7 C 36,1 C 27,8 C 63 % 1011,6 hPa 0,0 l/m 2 min 0 min 791 W/m 12,9 km/h (3 Bft) 100,00 %
13.08.2020 13:08 30,8 C 36,1 C 27,8 C 63 % 1011,6 hPa 0,0 l/m 2 min 0 min 805 W/m 12,9 km/h (3 Bft) 97,87 %
13.08.2020 13:10 30,8 C 35,6 C 27,8 C 63 % 1011,6 hPa 0,0 l/m 2 min 0 min 753 W/m 16,1 km/h (3 Bft) 100,00 %
13.08.2020 13:12 30,9 C 35,0 C 27,8 C 63 % 1011,6 hPa 0,0 l/m 2 min 0 min 736 W/m 12,9 km/h (3 Bft) 97,83 %
13.08.2020 13:14 30,9 C 36,1 C 27,8 C 63 % 1011,6 hPa 0,0 l/m 2 min 0 min 763 W/m 12,9 km/h (3 Bft) 100,00 %
13.08.2020 13:16 30,9 C 36,7 C 28,3 C 63 % 1011,6 hPa 0,0 l/m 2 min 0 min 826 W/m 9,7 km/h (2 Bft) 97,87 %
13.08.2020 13:18 31,0 C 37,2 C 28,3 C 65 % 1011,6 hPa 0,0 l/m 2 min 0 min 802 W/m 6,4 km/h (2 Bft) 100,00 %
13.08.2020 13:20 31,1 C 37,8 C 28,3 C 67 % 1011,6 hPa 0,0 l/m 2 min 0 min 810 W/m 6,4 km/h (2 Bft) 100,00 %
13.08.2020 13:22 31,2 C 37,8 C 28,3 C 65 % 1011,6 hPa 0,0 l/m 2 min 0 min 852 W/m 6,4 km/h (2 Bft) 100,00 %
13.08.2020 13:24 31,2 C 37,2 C 28,3 C 64 % 1011,6 hPa 0,0 l/m 2 min 0 min 845 W/m 12,9 km/h (3 Bft) 97,87 %
13.08.2020 13:26 31,3 C 36,1 C 28,3 C 64 % 1011,6 hPa 0,0 l/m 2 min 0 min 793 W/m 16,1 km/h (3 Bft) 100,00 %
13.08.2020 13:28 31,3 C 36,1 C 28,3 C 64 % 1011,6 hPa 0,0 l/m 2 min 0 min 751 W/m 19,3 km/h (3 Bft) 100,00 %
13.08.2020 13:30 31,4 C 36,1 C 28,9 C 64 % 1011,6 hPa 0,0 l/m 2 min 0 min 740 W/m 9,7 km/h (2 Bft) 97,87 %
13.08.2020 13:32 31,4 C 35,6 C 28,9 C 63 % 1011,5 hPa 0,0 l/m 2 min 0 min 762 W/m 12,9 km/h (3 Bft) 100,00 %
13.08.2020 13:34 31,4 C 35,6 C 28,9 C 64 % 1011,5 hPa 0,0 l/m 2 min 0 min 780 W/m 12,9 km/h (3 Bft) 100,00 %
13.08.2020 13:36 31,4 C 35,0 C 28,9 C 63 % 1011,4 hPa 0,0 l/m 2 min 0 min 778 W/m 16,1 km/h (3 Bft) 100,00 %
13.08.2020 13:38 31,4 C 34,4 C 28,9 C 63 % 1011,4 hPa 0,0 l/m 2 min 0 min 753 W/m 19,3 km/h (3 Bft) 100,00 %
13.08.2020 13:40 31,4 C 35,0 C 28,9 C 63 % 1011,4 hPa 0,0 l/m 2 min 0 min 743 W/m 12,9 km/h (3 Bft) 100,00 %
13.08.2020 13:42 31,4 C 35,6 C 28,9 C 64 % 1011,4 hPa 0,0 l/m 2 min 0 min 779 W/m 16,1 km/h (3 Bft) 100,00 %
13.08.2020 13:44 31,5 C 36,1 C 29,4 C 63 % 1011,4 hPa 0,0 l/m 2 min 0 min 775 W/m 12,9 km/h (3 Bft) 100,00 %
13.08.2020 13:46 31,5 C 36,7 C 29,4 C 63 % 1011,4 hPa 0,0 l/m 2 min 0 min 759 W/m 12,9 km/h (3 Bft) 97,83 %
13.08.2020 13:48 31,6 C 36,1 C 29,4 C 63 % 1011,4 hPa 0,0 l/m 2 min 0 min 734 W/m 9,7 km/h (2 Bft) 100,00 %
13.08.2020 13:50 31,6 C 35,6 C 29,4 C 63 % 1011,3 hPa 0,0 l/m 2 min 0 min 717 W/m 16,1 km/h (3 Bft) 100,00 %
13.08.2020 13:52 31,6 C 35,6 C 29,4 C 63 % 1011,4 hPa 0,0 l/m 2 min 0 min 746 W/m 12,9 km/h (3 Bft) 95,74 %
13.08.2020 13:54 31,6 C 35,0 C 29,4 C 62 % 1011,3 hPa 0,0 l/m 2 min 0 min 758 W/m 12,9 km/h (3 Bft) 97,87 %
13.08.2020 13:56 31,7 C 36,1 C 29,4 C 63 % 1011,3 hPa 0,0 l/m 2 min 0 min 747 W/m 6,4 km/h (2 Bft) 97,87 %
13.08.2020 13:58 31,7 C 36,1 C 29,4 C 64 % 1011,4 hPa 0,0 l/m 2 min 0 min 720 W/m 12,9 km/h (3 Bft) 100,00 %
13.08.2020 14:00 31,7 C 36,1 C 29,4 C 62 % 1011,3 hPa 0,0 l/m 2 min 0 min 735 W/m 12,9 km/h (3 Bft) 97,87 %
13.08.2020 14:02 31,7 C 35,6 C 30,0 C 61 % 1011,3 hPa 0,0 l/m 2 min 0 min 740 W/m 16,1 km/h (3 Bft) 97,87 %
13.08.2020 14:04 31,8 C 36,1 C 30,0 C 63 % 1011,3 hPa 0,0 l/m 2 min 0 min 716 W/m 9,7 km/h (2 Bft) 95,74 %
13.08.2020 14:06 31,8 C 36,1 C 30,0 C 63 % 1011,3 hPa 0,0 l/m 2 min 0 min 728 W/m 12,9 km/h (3 Bft) 95,74 %
13.08.2020 14:08 31,8 C 36,7 C 30,6 C 61 % 1011,3 hPa 0,0 l/m 2 min 0 min 777 W/m 16,1 km/h (3 Bft) 93,62 %
13.08.2020 14:10 31,8 C 36,7 C 30,6 C 61 % 1011,4 hPa 0,0 l/m 2 min 0 min 834 W/m 12,9 km/h (3 Bft) 91,30 %
13.08.2020 14:12 31,9 C 36,7 C 30,6 C 61 % 1011,3 hPa 0,0 l/m 2 min 0 min 817 W/m 9,7 km/h (2 Bft) 93,62 %
13.08.2020 14:14 31,9 C 36,7 C 30,6 C 61 % 1011,3 hPa 0,0 l/m 2 min 0 min 830 W/m 9,7 km/h (2 Bft) 93,62 %
13.08.2020 14:16 32,0 C 36,7 C 30,6 C 61 % 1011,3 hPa 0,0 l/m 2 min 0 min 789 W/m 9,7 km/h (2 Bft) 93,62 %
13.08.2020 14:18 32,1 C 37,2 C 30,6 C 61 % 1011,2 hPa 0,0 l/m 2 min 0 min 759 W/m 12,9 km/h (3 Bft) 93,62 %
13.08.2020 14:20 32,1 C 36,7 C 30,6 C 60 % 1011,3 hPa 0,0 l/m 2 min 0 min 766 W/m 9,7 km/h (2 Bft) 93,62 %
13.08.2020 14:22 32,2 C 36,7 C 30,6 C 60 % 1011,3 hPa 0,0 l/m 2 min 0 min 775 W/m 16,1 km/h (3 Bft) 93,48 %
13.08.2020 14:24 32,2 C 36,7 C 30,6 C 59 % 1011,2 hPa 0,0 l/m 2 min 0 min 774 W/m 12,9 km/h (3 Bft) 95,74 %
13.08.2020 14:26 32,2 C 36,7 C 30,6 C 59 % 1011,2 hPa 0,0 l/m 2 min 0 min 780 W/m 9,7 km/h (2 Bft) 93,62 %
13.08.2020 14:28 32,3 C 36,7 C 30,6 C 59 % 1011,2 hPa 0,0 l/m 2 min 0 min 747 W/m 16,1 km/h (3 Bft) 91,49 %
13.08.2020 14:30 32,3 C 36,1 C 30,6 C 59 % 1011,2 hPa 0,0 l/m 2 min 0 min 705 W/m 19,3 km/h (3 Bft) 93,62 %
13.08.2020 14:32 32,3 C 36,1 C 30,6 C 59 % 1011,2 hPa 0,0 l/m 2 min 0 min 682 W/m 12,9 km/h (3 Bft) 93,48 %
13.08.2020 14:34 32,4 C 36,1 C 30,6 C 58 % 1011,2 hPa 0,0 l/m 2 min 0 min 683 W/m 9,7 km/h (2 Bft) 93,62 %
13.08.2020 14:36 32,4 C 36,7 C 30,6 C 60 % 1011,2 hPa 0,0 l/m 2 min 0 min 742 W/m 9,7 km/h (2 Bft) 91,49 %
13.08.2020 14:38 32,5 C 37,2 C 31,1 C 58 % 1011,3 hPa 0,0 l/m 2 min 0 min 791 W/m 16,1 km/h (3 Bft) 93,62 %
13.08.2020 14:40 32,6 C 37,2 C 31,1 C 56 % 1011,2 hPa 0,0 l/m 2 min 0 min 772 W/m 16,1 km/h (3 Bft) 91,49 %
13.08.2020 14:42 32,6 C 37,8 C 31,1 C 55 % 1011,2 hPa 0,0 l/m 2 min 0 min 795 W/m 22,5 km/h (4 Bft) 93,62 %
13.08.2020 14:44 32,6 C 37,2 C 31,1 C 52 % 1011,3 hPa 0,0 l/m 2 min 0 min 836 W/m 16,1 km/h (3 Bft) 93,48 %
13.08.2020 14:46 32,6 C 37,2 C 30,6 C 53 % 1011,2 hPa 0,0 l/m 2 min 0 min 747 W/m 16,1 km/h (3 Bft) 91,49 %
13.08.2020 14:48 32,7 C 37,2 C 30,6 C 54 % 1011,1 hPa 0,0 l/m 2 min 0 min 762 W/m 19,3 km/h (3 Bft) 95,74 %
13.08.2020 14:50 32,7 C 37,2 C 30,6 C 54 % 1011,2 hPa 0,0 l/m 2 min 0 min 759 W/m 12,9 km/h (3 Bft) 100,00 %
13.08.2020 14:52 32,7 C 37,2 C 30,6 C 55 % 1011,1 hPa 0,0 l/m 2 min 0 min 760 W/m 12,9 km/h (3 Bft) 95,74 %
13.08.2020 14:54 32,7 C 36,7 C 30,6 C 54 % 1011,1 hPa 0,0 l/m 2 min 0 min 754 W/m 12,9 km/h (3 Bft) 95,74 %
13.08.2020 14:56 32,8 C 37,2 C 30,6 C 55 % 1011,1 hPa 0,0 l/m 2 min 0 min 718 W/m 12,9 km/h (3 Bft) 95,65 %
13.08.2020 14:58 32,8 C 36,1 C 30,6 C 53 % 1011,1 hPa 0,0 l/m 2 min 0 min 684 W/m 19,3 km/h (3 Bft) 95,74 %
13.08.2020 15:00 32,8 C 36,7 C 30,6 C 53 % 1011,1 hPa 0,0 l/m 2 min 0 min 739 W/m 16,1 km/h (3 Bft) 97,87 %
13.08.2020 15:02 32,8 C 37,2 C 30,6 C 56 % 1011,0 hPa 0,0 l/m 2 min 0 min 728 W/m 3,2 km/h (1 Bft) 97,87 %
13.08.2020 15:04 32,9 C 37,2 C 30,6 C 53 % 1011,0 hPa 0,0 l/m 2 min 0 min 734 W/m 12,9 km/h (3 Bft) 97,87 %
13.08.2020 15:06 32,9 C 37,2 C 31,1 C 52 % 1011,1 hPa 0,0 l/m 2 min 0 min 736 W/m 12,9 km/h (3 Bft) 95,74 %
13.08.2020 15:08 32,9 C 37,2 C 31,1 C 51 % 1011,0 hPa 0,0 l/m 2 min 0 min 744 W/m 12,9 km/h (3 Bft) 97,83 %
13.08.2020 15:10 32,9 C 36,7 C 30,6 C 51 % 1011,1 hPa 0,0 l/m 2 min 0 min 752 W/m 16,1 km/h (3 Bft) 97,87 %
13.08.2020 15:12 32,9 C 36,7 C 31,1 C 51 % 1011,1 hPa 0,0 l/m 2 min 0 min 740 W/m 12,9 km/h (3 Bft) 97,87 %
13.08.2020 15:14 32,9 C 37,2 C 31,1 C 53 % 1011,0 hPa 0,0 l/m 2 min 0 min 736 W/m 12,9 km/h (3 Bft) 97,87 %
13.08.2020 15:16 32,9 C 37,2 C 31,1 C 53 % 1011,1 hPa 0,0 l/m 2 min 0 min 739 W/m 12,9 km/h (3 Bft) 95,74 %
13.08.2020 15:18 33,0 C 37,2 C 31,1 C 53 % 1011,1 hPa 0,0 l/m 2 min 0 min 761 W/m 12,9 km/h (3 Bft) 97,87 %
13.08.2020 15:20 33,1 C 37,2 C 31,1 C 52 % 1011,0 hPa 0,0 l/m 2 min 0 min 713 W/m 12,9 km/h (3 Bft) 97,83 %
13.08.2020 15:22 33,1 C 37,8 C 31,1 C 51 % 1011,0 hPa 0,0 l/m 2 min 0 min 778 W/m 16,1 km/h (3 Bft) 95,74 %
13.08.2020 15:24 33,2 C 38,3 C 31,1 C 54 % 1011,0 hPa 0,0 l/m 2 min 0 min 802 W/m 6,4 km/h (2 Bft) 97,87 %
13.08.2020 15:26 33,2 C 38,3 C 31,1 C 53 % 1011,0 hPa 0,0 l/m 2 min 0 min 781 W/m 6,4 km/h (2 Bft) 100,00 %
13.08.2020 15:28 33,3 C 38,9 C 31,7 C 52 % 1011,0 hPa 0,0 l/m 2 min 0 min 791 W/m 12,9 km/h (3 Bft) 97,87 %
13.08.2020 15:30 33,4 C 39,4 C 31,7 C 52 % 1011,0 hPa 0,0 l/m 2 min 0 min 782 W/m 6,4 km/h (2 Bft) 97,83 %
13.08.2020 15:32 33,4 C 39,4 C 31,7 C 52 % 1010,9 hPa 0,0 l/m 2 min 0 min 784 W/m 6,4 km/h (2 Bft) 100,00 %
13.08.2020 15:34 33,5 C 39,4 C 31,7 C 52 % 1011,0 hPa 0,0 l/m 2 min 0 min 774 W/m 6,4 km/h (2 Bft) 100,00 %
13.08.2020 15:36 33,6 C 38,9 C 32,2 C 52 % 1010,9 hPa 0,0 l/m 2 min 0 min 717 W/m 6,4 km/h (2 Bft) 100,00 %
13.08.2020 15:38 33,6 C 38,9 C 31,7 C 51 % 1010,9 hPa 0,0 l/m 2 min 0 min 717 W/m 12,9 km/h (3 Bft) 100,00 %
13.08.2020 15:40 33,7 C 37,8 C 31,7 C 48 % 1010,9 hPa 0,0 l/m 2 min 0 min 683 W/m 12,9 km/h (3 Bft) 97,87 %
13.08.2020 15:42 33,7 C 36,1 C 31,1 C 46 % 1010,9 hPa 0,0 l/m 2 min 0 min 442 W/m 12,9 km/h (3 Bft) 100,00 %
13.08.2020 15:44 33,8 C 35,0 C 31,1 C 47 % 1010,8 hPa 0,0 l/m 0 min 0 min 313 W/m 16,1 km/h (3 Bft) 100,00 %
13.08.2020 15:46 33,8 C 35,0 C 31,1 C 47 % 1010,9 hPa 0,0 l/m 2 min 0 min 365 W/m 12,9 km/h (3 Bft) 100,00 %
13.08.2020 15:48 33,8 C 35,6 C 31,1 C 48 % 1010,9 hPa 0,0 l/m 2 min 0 min 488 W/m 12,9 km/h (3 Bft) 100,00 %
13.08.2020 15:50 33,7 C 35,6 C 31,1 C 47 % 1010,8 hPa 0,0 l/m 2 min 0 min 503 W/m 6,4 km/h (2 Bft) 97,87 %
13.08.2020 15:52 33,7 C 35,6 C 30,6 C 49 % 1010,9 hPa 0,0 l/m 2 min 0 min 390 W/m 12,9 km/h (3 Bft) 100,00 %
13.08.2020 15:54 33,7 C 35,6 C 30,6 C 48 % 1010,9 hPa 0,0 l/m 2 min 0 min 404 W/m 16,1 km/h (3 Bft) 100,00 %
13.08.2020 15:56 33,7 C 35,0 C 30,6 C 47 % 1010,8 hPa 0,0 l/m 2 min 0 min 447 W/m 6,4 km/h (2 Bft) 100,00 %
13.08.2020 15:58 33,7 C 35,0 C 30,6 C 47 % 1010,8 hPa 0,0 l/m 0 min 0 min 323 W/m 9,7 km/h (2 Bft) 100,00 %
13.08.2020 16:00 33,7 C 34,4 C 30,6 C 48 % 1010,8 hPa 0,0 l/m 0 min 0 min 323 W/m 6,4 km/h (2 Bft) 97,87 %
13.08.2020 16:02 33,7 C 34,4 C 30,6 C 49 % 1010,7 hPa 0,0 l/m 0 min 0 min 265 W/m 12,9 km/h (3 Bft) 93,62 %
13.08.2020 16:04 33,7 C 33,9 C 30,0 C 51 % 1010,7 hPa 0,0 l/m 0 min 0 min 242 W/m 6,4 km/h (2 Bft) 100,00 %
13.08.2020 16:06 33,7 C 33,3 C 30,0 C 50 % 1010,7 hPa 0,0 l/m 0 min 0 min 231 W/m 6,4 km/h (2 Bft) 97,83 %
13.08.2020 16:08 33,6 C 33,3 C 30,0 C 51 % 1010,7 hPa 0,0 l/m 0 min 0 min 232 W/m 3,2 km/h (1 Bft) 100,00 %
13.08.2020 16:10 33,6 C 33,3 C 30,0 C 54 % 1010,7 hPa 0,0 l/m 0 min 0 min 243 W/m 0,0 km/h (0 Bft) 100,00 %
13.08.2020 16:12 33,6 C 33,3 C 29,4 C 52 % 1010,7 hPa 0,0 l/m 0 min 0 min 245 W/m 0,0 km/h (0 Bft) 100,00 %
13.08.2020 16:14 33,5 C 32,8 C 30,0 C 51 % 1010,6 hPa 0,0 l/m 0 min 0 min 252 W/m 16,1 km/h (3 Bft) 100,00 %
13.08.2020 16:16 33,4 C 33,3 C 30,0 C 50 % 1010,6 hPa 0,0 l/m 0 min 0 min 286 W/m 12,9 km/h (3 Bft) 100,00 %
13.08.2020 16:18 33,4 C 33,9 C 30,6 C 51 % 1010,6 hPa 0,0 l/m 2 min 0 min 354 W/m 6,4 km/h (2 Bft) 97,83 %
13.08.2020 16:20 33,4 C 34,4 C 30,6 C 51 % 1010,6 hPa 0,0 l/m 2 min 0 min 415 W/m 12,9 km/h (3 Bft) 100,00 %
13.08.2020 16:22 33,4 C 34,4 C 30,6 C 53 % 1010,6 hPa 0,0 l/m 2 min 0 min 367 W/m 6,4 km/h (2 Bft) 100,00 %
13.08.2020 16:24 33,3 C 35,0 C 30,6 C 51 % 1010,6 hPa 0,0 l/m 2 min 0 min 426 W/m 16,1 km/h (3 Bft) 100,00 %
13.08.2020 16:26 33,3 C 35,6 C 31,1 C 52 % 1010,5 hPa 0,0 l/m 2 min 0 min 583 W/m 6,4 km/h (2 Bft) 100,00 %
13.08.2020 16:28 33,3 C 36,7 C 31,1 C 52 % 1010,5 hPa 0,0 l/m 2 min 0 min 682 W/m 12,9 km/h (3 Bft) 100,00 %
13.08.2020 16:30 33,4 C 38,3 C 31,7 C 58 % 1010,5 hPa 0,0 l/m 2 min 0 min 748 W/m 3,2 km/h (1 Bft) 95,65 %
13.08.2020 16:32 33,4 C 38,9 C 31,7 C 54 % 1010,5 hPa 0,0 l/m 2 min 0 min 731 W/m 9,7 km/h (2 Bft) 97,87 %
13.08.2020 16:34 33,5 C 38,9 C 32,2 C 53 % 1010,5 hPa 0,0 l/m 2 min 0 min 736 W/m 6,4 km/h (2 Bft) 100,00 %
13.08.2020 16:36 33,6 C 38,9 C 32,2 C 54 % 1010,5 hPa 0,0 l/m 2 min 0 min 696 W/m 12,9 km/h (3 Bft) 97,87 %
13.08.2020 16:38 33,7 C 38,3 C 32,2 C 53 % 1010,4 hPa 0,0 l/m 2 min 0 min 643 W/m 16,1 km/h (3 Bft) 100,00 %
13.08.2020 16:40 33,7 C 38,3 C 32,2 C 53 % 1010,4 hPa 0,0 l/m 2 min 0 min 617 W/m 6,4 km/h (2 Bft) 97,83 %
13.08.2020 16:42 33,8 C 37,8 C 32,2 C 52 % 1010,3 hPa 0,0 l/m 2 min 0 min 580 W/m 6,4 km/h (2 Bft) 97,87 %
13.08.2020 16:44 33,9 C 37,8 C 32,2 C 55 % 1010,3 hPa 0,0 l/m 2 min 0 min 590 W/m 12,9 km/h (3 Bft) 100,00 %
13.08.2020 16:46 34,0 C 37,8 C 31,7 C 53 % 1010,3 hPa 0,0 l/m 2 min 0 min 559 W/m 6,4 km/h (2 Bft) 100,00 %
13.08.2020 16:48 34,1 C 37,2 C 31,7 C 51 % 1010,2 hPa 0,0 l/m 2 min 0 min 573 W/m 12,9 km/h (3 Bft) 97,87 %
13.08.2020 16:50 34,1 C 36,1 C 31,7 C 51 % 1010,2 hPa 0,0 l/m 2 min 0 min 465 W/m 12,9 km/h (3 Bft) 97,87 %
13.08.2020 16:52 34,2 C 35,6 C 31,1 C 53 % 1010,2 hPa 0,0 l/m 0 min 0 min 274 W/m 6,4 km/h (2 Bft) 97,83 %
13.08.2020 16:54 34,2 C 34,4 C 30,6 C 55 % 1010,3 hPa 0,0 l/m 0 min 0 min 178 W/m 3,2 km/h (1 Bft) 95,74 %
13.08.2020 16:56 34,2 C 33,3 C 30,6 C 51 % 1010,2 hPa 0,0 l/m 0 min 0 min 119 W/m 16,1 km/h (3 Bft) 95,74 %
13.08.2020 16:58 34,2 C 32,8 C 30,0 C 52 % 1010,1 hPa 0,0 l/m 0 min 0 min 110 W/m 3,2 km/h (1 Bft) 97,87 %
13.08.2020 17:00 34,2 C 32,2 C 29,4 C 52 % 1010,1 hPa 0,0 l/m 0 min 0 min 105 W/m 16,1 km/h (3 Bft) 97,87 %
13.08.2020 17:02 34,1 C 32,2 C 29,4 C 51 % 1010,0 hPa 0,0 l/m 0 min 0 min 105 W/m 12,9 km/h (3 Bft) 97,87 %
13.08.2020 17:04 34,1 C 31,7 C 29,4 C 52 % 1010,0 hPa 0,0 l/m 0 min 0 min 104 W/m 6,4 km/h (2 Bft) 97,87 %
13.08.2020 17:06 34,1 C 31,7 C 29,4 C 52 % 1009,9 hPa 0,0 l/m 0 min 0 min 101 W/m 6,4 km/h (2 Bft) 93,48 %
13.08.2020 17:08 34,0 C 31,7 C 28,9 C 51 % 1009,9 hPa 0,0 l/m 0 min 0 min 96 W/m 9,7 km/h (2 Bft) 97,87 %
13.08.2020 17:10 33,9 C 31,1 C 29,4 C 51 % 1009,9 hPa 0,0 l/m 0 min 0 min 90 W/m 9,7 km/h (2 Bft) 95,74 %
13.08.2020 17:12 33,8 C 31,1 C 28,9 C 51 % 1009,9 hPa 0,0 l/m 0 min 0 min 80 W/m 6,4 km/h (2 Bft) 97,87 %
13.08.2020 17:14 33,7 C 31,1 C 28,9 C 53 % 1009,9 hPa 0,0 l/m 0 min 0 min 71 W/m 3,2 km/h (1 Bft) 100,00 %
13.08.2020 17:16 33,7 C 31,1 C 28,9 C 52 % 1010,0 hPa 0,0 l/m 0 min 0 min 64 W/m 16,1 km/h (3 Bft) 97,83 %
13.08.2020 17:18 33,6 C 31,1 C 28,9 C 52 % 1010,0 hPa 0,0 l/m 0 min 0 min 56 W/m 12,9 km/h (3 Bft) 97,87 %
13.08.2020 17:20 33,5 C 31,1 C 28,9 C 52 % 1010,0 hPa 0,0 l/m 0 min 0 min 48 W/m 0,0 km/h (0 Bft) 97,87 %
13.08.2020 17:22 33,4 C 31,1 C 28,9 C 52 % 1010,1 hPa 0,0 l/m 0 min 0 min 42 W/m 6,4 km/h (2 Bft) 93,62 %
13.08.2020 17:24 33,3 C 30,6 C 28,9 C 53 % 1010,3 hPa 0,0 l/m 0 min 0 min 38 W/m 12,9 km/h (3 Bft) 95,74 %
13.08.2020 17:26 33,2 C 30,6 C 28,9 C 53 % 1010,5 hPa 0,0 l/m 0 min 0 min 34 W/m 6,4 km/h (2 Bft) 93,62 %
13.08.2020 17:28 33,2 C 30,6 C 28,3 C 53 % 1010,6 hPa 0,0 l/m 0 min 0 min 30 W/m 6,4 km/h (2 Bft) 93,48 %
13.08.2020 17:30 33,1 C 30,6 C 28,9 C 53 % 1010,6 hPa 0,0 l/m 0 min 0 min 27 W/m 12,9 km/h (3 Bft) 95,74 %
13.08.2020 17:32 33,0 C 30,6 C 28,3 C 54 % 1010,5 hPa 0,0 l/m 0 min 0 min 25 W/m 6,4 km/h (2 Bft) 95,74 %
13.08.2020 17:34 32,9 C 30,6 C 28,3 C 54 % 1010,4 hPa 0,0 l/m 0 min 0 min 24 W/m 6,4 km/h (2 Bft) 95,74 %
13.08.2020 17:36 32,8 C 30,6 C 28,3 C 54 % 1010,4 hPa 0,0 l/m 0 min 0 min 22 W/m 12,9 km/h (3 Bft) 95,74 %
13.08.2020 17:38 32,8 C 30,6 C 28,3 C 55 % 1010,3 hPa 0,0 l/m 0 min 0 min 20 W/m 6,4 km/h (2 Bft) 93,62 %
13.08.2020 17:40 32,7 C 30,0 C 28,3 C 55 % 1010,3 hPa 0,0 l/m 0 min 0 min 16 W/m 12,9 km/h (3 Bft) 95,65 %
13.08.2020 17:42 32,5 C 29,4 C 28,3 C 57 % 1010,6 hPa 0,0 l/m 0 min 0 min 14 W/m 29,0 km/h (5 Bft) 95,74 %
13.08.2020 17:44 32,2 C 27,8 C 27,8 C 58 % 1010,8 hPa 0,0 l/m 0 min 0 min 13 W/m 41,8 km/h (6 Bft) 95,74 %
13.08.2020 17:46 31,8 C 26,7 C 26,7 C 58 % 1010,7 hPa 0,0 l/m 0 min 0 min 12 W/m 38,6 km/h (5 Bft) 93,62 %
13.08.2020 17:48 31,4 C 26,1 C 26,1 C 59 % 1010,7 hPa 0,0 l/m 0 min 0 min 12 W/m 32,2 km/h (5 Bft) 97,87 %
13.08.2020 17:50 31,0 C 26,1 C 26,1 C 59 % 1010,7 hPa 0,0 l/m 0 min 0 min 12 W/m 19,3 km/h (3 Bft) 97,83 %
13.08.2020 17:52 30,6 C 26,1 C 25,6 C 59 % 1010,8 hPa 0,0 l/m 0 min 0 min 12 W/m 19,3 km/h (3 Bft) 95,74 %
13.08.2020 17:54 30,2 C 26,1 C 25,6 C 58 % 1010,9 hPa 0,0 l/m 0 min 0 min 11 W/m 32,2 km/h (5 Bft) 100,00 %
13.08.2020 17:56 29,8 C 25,6 C 25,6 C 59 % 1010,9 hPa 0,0 l/m 0 min 0 min 10 W/m 29,0 km/h (5 Bft) 95,74 %
13.08.2020 17:58 29,4 C 25,6 C 25,6 C 60 % 1010,9 hPa 0,0 l/m 0 min 0 min 9 W/m 19,3 km/h (3 Bft) 97,87 %
13.08.2020 18:00 29,1 C 25,6 C 25,6 C 61 % 1010,9 hPa 0,0 l/m 0 min 0 min 8 W/m 19,3 km/h (3 Bft) 93,62 %
13.08.2020 18:02 28,8 C 25,6 C 25,6 C 61 % 1010,9 hPa 0,0 l/m 0 min 0 min 7 W/m 25,7 km/h (4 Bft) 97,83 %
13.08.2020 18:04 28,6 C 25,6 C 25,0 C 61 % 1010,9 hPa 0,0 l/m 0 min 0 min 7 W/m 35,4 km/h (5 Bft) 97,87 %
13.08.2020 18:08 28,1 C 25,0 C 25,0 C 62 % 1010,9 hPa 0,0 l/m 0 min 0 min 9 W/m 35,4 km/h (5 Bft) 97,87 %
13.08.2020 18:10 27,8 C 25,0 C 25,0 C 62 % 1010,8 hPa 0,0 l/m 0 min 0 min 9 W/m 32,2 km/h (5 Bft) 100,00 %
13.08.2020 18:12 27,6 C 25,0 C 24,4 C 62 % 1010,8 hPa 0,0 l/m 0 min 0 min 10 W/m 19,3 km/h (3 Bft) 100,00 %
13.08.2020 18:14 27,5 C 25,0 C 24,4 C 63 % 1010,9 hPa 0,0 l/m 0 min 0 min 11 W/m 9,7 km/h (2 Bft) 97,83 %
13.08.2020 18:16 27,4 C 25,0 C 24,4 C 64 % 1010,9 hPa 0,0 l/m 0 min 0 min 11 W/m 19,3 km/h (3 Bft) 97,87 %
13.08.2020 18:18 27,3 C 24,4 C 24,4 C 65 % 1010,9 hPa 0,0 l/m 0 min 0 min 11 W/m 25,7 km/h (4 Bft) 97,87 %
13.08.2020 18:20 27,2 C 24,4 C 24,4 C 66 % 1010,8 hPa 0,0 l/m 0 min 0 min 11 W/m 16,1 km/h (3 Bft) 100,00 %
13.08.2020 18:22 27,1 C 24,4 C 23,9 C 66 % 1010,7 hPa 0,0 l/m 0 min 0 min 11 W/m 16,1 km/h (3 Bft) 100,00 %
13.08.2020 18:24 26,9 C 24,4 C 23,9 C 67 % 1010,7 hPa 0,0 l/m 0 min 0 min 12 W/m 6,4 km/h (2 Bft) 100,00 %
13.08.2020 18:26 26,8 C 24,4 C 23,9 C 67 % 1010,8 hPa 0,0 l/m 0 min 0 min 12 W/m 3,2 km/h (1 Bft) 93,48 %
13.08.2020 18:28 26,8 C 24,4 C 24,4 C 68 % 1010,8 hPa 0,0 l/m 0 min 0 min 13 W/m 6,4 km/h (2 Bft) 97,87 %
13.08.2020 18:30 26,7 C 24,4 C 24,4 C 68 % 1010,8 hPa 0,0 l/m 0 min 0 min 14 W/m 3,2 km/h (1 Bft) 97,87 %
13.08.2020 18:32 26,6 C 24,4 C 24,4 C 69 % 1010,8 hPa 0,0 l/m 0 min 0 min 15 W/m 6,4 km/h (2 Bft) 97,87 %
13.08.2020 18:34 26,6 C 24,4 C 24,4 C 69 % 1010,6 hPa 0,0 l/m 0 min 0 min 16 W/m 0,0 km/h (0 Bft) 97,87 %
13.08.2020 18:36 26,4 C 24,4 C 23,9 C 70 % 1010,7 hPa 0,0 l/m 0 min 0 min 18 W/m 3,2 km/h (1 Bft) 95,74 %
13.08.2020 18:38 26,4 C 24,4 C 23,9 C 70 % 1010,6 hPa 0,0 l/m 0 min 0 min 20 W/m 3,2 km/h (1 Bft) 97,83 %
13.08.2020 18:40 26,3 C 23,9 C 23,9 C 71 % 1010,5 hPa 0,0 l/m 0 min 0 min 21 W/m 12,9 km/h (3 Bft) 95,74 %
13.08.2020 18:42 26,3 C 23,3 C 23,9 C 72 % 1010,4 hPa 0,0 l/m 0 min 2 min 25 W/m 6,4 km/h (2 Bft) 97,87 %
13.08.2020 18:44 26,2 C 23,3 C 23,9 C 73 % 1010,4 hPa 0,0 l/m 0 min 2 min 26 W/m 3,2 km/h (1 Bft) 97,87 %
13.08.2020 18:46 26,2 C 23,3 C 23,3 C 74 % 1010,4 hPa 0,0 l/m 0 min 2 min 28 W/m 12,9 km/h (3 Bft) 97,87 %
13.08.2020 18:48 26,2 C 23,3 C 23,3 C 75 % 1010,5 hPa 0,0 l/m 0 min 2 min 29 W/m 0,0 km/h (0 Bft) 97,87 %
13.08.2020 18:50 26,1 C 23,3 C 22,8 C 76 % 1010,5 hPa 0,0 l/m 0 min 2 min 32 W/m 0,0 km/h (0 Bft) 95,65 %
13.08.2020 18:52 26,0 C 23,3 C 22,8 C 76 % 1010,5 hPa 0,0 l/m 0 min 2 min 32 W/m 0,0 km/h (0 Bft) 97,87 %
13.08.2020 18:54 25,9 C 23,3 C 22,8 C 77 % 1010,5 hPa 0,0 l/m 0 min 0 min 34 W/m 0,0 km/h (0 Bft) 95,74 %
13.08.2020 18:56 25,9 C 23,3 C 22,8 C 77 % 1010,5 hPa 0,0 l/m 0 min 0 min 36 W/m 0,0 km/h (0 Bft) 97,87 %
13.08.2020 18:58 25,9 C 23,3 C 22,8 C 77 % 1010,5 hPa 0,0 l/m 0 min 0 min 37 W/m 0,0 km/h (0 Bft) 95,74 %
13.08.2020 19:00 25,9 C 23,3 C 22,8 C 78 % 1010,5 hPa 0,0 l/m 0 min 0 min 39 W/m 0,0 km/h (0 Bft) 97,83 %
13.08.2020 19:02 25,8 C 23,3 C 22,8 C 79 % 1010,6 hPa 0,0 l/m 0 min 0 min 40 W/m 0,0 km/h (0 Bft) 96,23 %
13.08.2020 19:04 25,8 C 23,3 C 22,8 C 79 % 1010,6 hPa 0,0 l/m 0 min 0 min 42 W/m 0,0 km/h (0 Bft) 97,87 %
13.08.2020 19:06 25,8 C 23,9 C 22,8 C 79 % 1010,7 hPa 0,0 l/m 0 min 0 min 42 W/m 0,0 km/h (0 Bft) 97,87 %
13.08.2020 19:08 25,7 C 23,9 C 22,8 C 79 % 1010,7 hPa 0,0 l/m 0 min 0 min 42 W/m 0,0 km/h (0 Bft) 97,87 %
13.08.2020 19:10 25,7 C 23,9 C 22,8 C 79 % 1010,8 hPa 0,0 l/m 0 min 2 min 42 W/m 0,0 km/h (0 Bft) 97,87 %
13.08.2020 19:12 25,7 C 23,9 C 22,8 C 79 % 1010,7 hPa 0,0 l/m 0 min 2 min 40 W/m 0,0 km/h (0 Bft) 97,83 %
13.08.2020 19:14 25,6 C 23,9 C 22,8 C 79 % 1010,7 hPa 0,0 l/m 0 min 0 min 39 W/m 0,0 km/h (0 Bft) 97,87 %
13.08.2020 19:16 25,6 C 23,9 C 22,8 C 79 % 1010,7 hPa 0,0 l/m 0 min 0 min 40 W/m 0,0 km/h (0 Bft) 97,87 %
13.08.2020 19:18 25,6 C 23,9 C 22,8 C 80 % 1010,7 hPa 0,0 l/m 0 min 0 min 40 W/m 0,0 km/h (0 Bft) 97,87 %
13.08.2020 19:20 25,5 C 23,9 C 23,3 C 80 % 1010,6 hPa 0,0 l/m 0 min 0 min 42 W/m 0,0 km/h (0 Bft) 100,00 %
13.08.2020 19:22 25,5 C 23,9 C 22,8 C 80 % 1010,6 hPa 0,0 l/m 0 min 0 min 42 W/m 0,0 km/h (0 Bft) 100,00 %
13.08.2020 19:24 25,4 C 23,9 C 22,8 C 80 % 1010,5 hPa 0,0 l/m 0 min 2 min 44 W/m 0,0 km/h (0 Bft) 97,83 %
13.08.2020 19:26 25,4 C 23,9 C 22,8 C 81 % 1010,4 hPa 0,0 l/m 0 min 2 min 45 W/m 0,0 km/h (0 Bft) 100,00 %
13.08.2020 19:28 25,4 C 23,9 C 22,8 C 81 % 1010,4 hPa 0,0 l/m 0 min 0 min 46 W/m 0,0 km/h (0 Bft) 100,00 %
13.08.2020 19:30 25,4 C 23,9 C 22,8 C 82 % 1010,5 hPa 0,0 l/m 0 min 0 min 46 W/m 0,0 km/h (0 Bft) 100,00 %
13.08.2020 19:32 25,4 C 23,3 C 22,8 C 82 % 1010,5 hPa 0,0 l/m 0 min 0 min 46 W/m 0,0 km/h (0 Bft) 97,87 %
13.08.2020 19:34 25,4 C 23,3 C 22,8 C 82 % 1010,6 hPa 0,0 l/m 0 min 0 min 45 W/m 0,0 km/h (0 Bft) 97,87 %
13.08.2020 19:36 25,3 C 23,3 C 22,8 C 82 % 1010,8 hPa 0,0 l/m 0 min 0 min 43 W/m 0,0 km/h (0 Bft) 100,00 %
13.08.2020 19:38 25,3 C 23,3 C 22,8 C 82 % 1011,1 hPa 0,0 l/m 0 min 0 min 42 W/m 0,0 km/h (0 Bft) 100,00 %
13.08.2020 19:40 25,2 C 23,3 C 22,8 C 82 % 1011,0 hPa 0,0 l/m 0 min 0 min 40 W/m 0,0 km/h (0 Bft) 97,87 %
13.08.2020 19:42 25,2 C 23,3 C 22,8 C 82 % 1011,1 hPa 0,0 l/m 0 min 0 min 39 W/m 0,0 km/h (0 Bft) 100,00 %
13.08.2020 19:44 25,2 C 23,3 C 22,8 C 82 % 1011,0 hPa 0,0 l/m 0 min 0 min 34 W/m 3,2 km/h (1 Bft) 97,87 %
13.08.2020 19:46 25,1 C 23,9 C 22,8 C 82 % 1010,9 hPa 0,0 l/m 0 min 0 min 31 W/m 0,0 km/h (0 Bft) 97,62 %
13.08.2020 19:48 25,1 C 23,9 C 22,8 C 81 % 1010,9 hPa 0,0 l/m 0 min 0 min 26 W/m 0,0 km/h (0 Bft) 100,00 %
13.08.2020 19:50 25,1 C 23,9 C 22,8 C 81 % 1011,0 hPa 0,0 l/m 0 min 0 min 22 W/m 0,0 km/h (0 Bft) 100,00 %
13.08.2020 19:52 25,0 C 23,9 C 22,8 C 82 % 1011,4 hPa 0,0 l/m 0 min 0 min 18 W/m 0,0 km/h (0 Bft) 93,62 %
13.08.2020 19:54 25,0 C 23,9 C 22,8 C 82 % 1011,5 hPa 0,0 l/m 0 min 0 min 19 W/m 3,2 km/h (1 Bft) 95,74 %
13.08.2020 19:56 24,9 C 23,9 C 22,8 C 83 % 1011,4 hPa 0,0 l/m 0 min 0 min 25 W/m 0,0 km/h (0 Bft) 93,62 %
13.08.2020 19:58 24,9 C 23,9 C 22,8 C 83 % 1011,5 hPa 0,0 l/m 0 min 0 min 28 W/m 3,2 km/h (1 Bft) 97,87 %
13.08.2020 20:00 24,9 C 23,9 C 22,8 C 83 % 1011,6 hPa 0,0 l/m 0 min 0 min 28 W/m 0,0 km/h (0 Bft) 97,83 %
13.08.2020 20:02 24,9 C 23,9 C 23,3 C 83 % 1011,6 hPa 0,0 l/m 0 min 0 min 28 W/m 0,0 km/h (0 Bft) 95,74 %
13.08.2020 20:04 24,9 C 23,9 C 23,3 C 82 % 1011,5 hPa 0,0 l/m 0 min 0 min 28 W/m 9,7 km/h (2 Bft) 95,74 %
13.08.2020 20:06 24,8 C 23,9 C 23,3 C 82 % 1011,6 hPa 0,0 l/m 0 min 0 min 27 W/m 12,9 km/h (3 Bft) 93,62 %
13.08.2020 20:08 24,8 C 24,4 C 23,3 C 80 % 1011,7 hPa 0,0 l/m 0 min 0 min 26 W/m 9,7 km/h (2 Bft) 95,74 %
13.08.2020 20:10 24,8 C 24,4 C 23,3 C 79 % 1011,6 hPa 0,0 l/m 0 min 0 min 25 W/m 9,7 km/h (2 Bft) 95,74 %
13.08.2020 20:12 24,8 C 24,4 C 23,3 C 79 % 1011,7 hPa 0,0 l/m 0 min 0 min 25 W/m 6,4 km/h (2 Bft) 91,30 %
13.08.2020 20:14 24,8 C 23,9 C 23,3 C 79 % 1011,7 hPa 0,0 l/m 0 min 0 min 23 W/m 0,0 km/h (0 Bft) 93,62 %
13.08.2020 20:16 24,8 C 23,9 C 23,3 C 79 % 1011,6 hPa 0,0 l/m 0 min 0 min 22 W/m 0,0 km/h (0 Bft) 97,87 %
13.08.2020 20:18 24,8 C 23,9 C 23,3 C 79 % 1011,7 hPa 0,0 l/m 0 min 0 min 21 W/m 0,0 km/h (0 Bft) 95,74 %
13.08.2020 20:20 24,8 C 23,9 C 23,3 C 79 % 1011,8 hPa 0,0 l/m 0 min 0 min 19 W/m 0,0 km/h (0 Bft) 95,74 %
13.08.2020 20:22 24,8 C 23,9 C 23,3 C 79 % 1011,6 hPa 0,0 l/m 0 min 0 min 19 W/m 0,0 km/h (0 Bft) 95,65 %
13.08.2020 20:24 24,8 C 23,9 C 23,3 C 79 % 1011,6 hPa 0,0 l/m 0 min 0 min 18 W/m 0,0 km/h (0 Bft) 93,62 %
13.08.2020 20:26 24,8 C 23,9 C 23,3 C 79 % 1011,6 hPa 0,0 l/m 0 min 0 min 16 W/m 0,0 km/h (0 Bft) 95,74 %
13.08.2020 20:28 24,8 C 23,9 C 23,3 C 79 % 1011,6 hPa 0,0 l/m 0 min 0 min 16 W/m 0,0 km/h (0 Bft) 93,62 %
13.08.2020 20:30 24,8 C 23,9 C 22,8 C 79 % 1011,6 hPa 0,0 l/m 0 min 0 min 14 W/m 3,2 km/h (1 Bft) 95,74 %
13.08.2020 20:32 24,8 C 23,9 C 22,8 C 79 % 1011,6 hPa 0,0 l/m 0 min 0 min 12 W/m 0,0 km/h (0 Bft) 93,62 %
13.08.2020 20:34 24,8 C 23,3 C 22,8 C 79 % 1011,7 hPa 0,0 l/m 0 min 0 min 12 W/m 0,0 km/h (0 Bft) 95,65 %
13.08.2020 20:36 24,8 C 23,3 C 22,8 C 79 % 1011,7 hPa 0,0 l/m 0 min 0 min 11 W/m 0,0 km/h (0 Bft) 96,00 %
13.08.2020 20:38 24,8 C 23,3 C 22,8 C 79 % 1011,6 hPa 0,0 l/m 0 min 0 min 11 W/m 0,0 km/h (0 Bft) 95,74 %
13.08.2020 20:40 24,8 C 23,3 C 22,8 C 79 % 1011,6 hPa 0,0 l/m 0 min 0 min 9 W/m 0,0 km/h (0 Bft) 97,87 %
13.08.2020 20:42 24,8 C 23,3 C 22,8 C 79 % 1011,6 hPa 0,0 l/m 0 min 0 min 7 W/m 0,0 km/h (0 Bft) 93,62 %
13.08.2020 20:44 24,8 C 23,3 C 22,8 C 79 % 1011,6 hPa 0,0 l/m 0 min 0 min 7 W/m 0,0 km/h (0 Bft) 97,83 %
13.08.2020 20:46 24,8 C 22,8 C 22,2 C 79 % 1011,6 hPa 0,0 l/m 0 min 0 min 6 W/m 0,0 km/h (0 Bft) 97,87 %
13.08.2020 20:48 24,7 C 22,8 C 22,2 C 79 % 1011,6 hPa 0,0 l/m 0 min 0 min 5 W/m 0,0 km/h (0 Bft) 95,74 %
13.08.2020 20:50 24,7 C 22,8 C 22,2 C 79 % 1011,5 hPa 0,0 l/m 0 min 0 min 4 W/m 0,0 km/h (0 Bft) 97,87 %
13.08.2020 20:52 24,7 C 22,8 C 22,2 C 79 % 1011,5 hPa 0,0 l/m 0 min 0 min 0 W/m 0,0 km/h (0 Bft) 97,87 %
13.08.2020 20:54 24,7 C 22,8 C 22,2 C 79 % 1011,4 hPa 0,0 l/m 0 min 0 min 0 W/m 0,0 km/h (0 Bft) 97,87 %
13.08.2020 20:56 24,6 C 22,2 C 21,7 C 79 % 1011,4 hPa 0,0 l/m 0 min 0 min 0 W/m 0,0 km/h (0 Bft) 95,65 %
13.08.2020 20:58 24,6 C 22,2 C 21,7 C 79 % 1011,4 hPa 0,0 l/m 0 min 0 min 0 W/m 0,0 km/h (0 Bft) 97,87 %
13.08.2020 21:00 24,6 C 22,2 C 21,7 C 79 % 1011,4 hPa 0,0 l/m 0 min 0 min 0 W/m 0,0 km/h (0 Bft) 100,00 %
13.08.2020 21:02 24,6 C 22,2 C 21,7 C 79 % 1011,4 hPa 0,0 l/m 0 min 0 min 0 W/m 0,0 km/h (0 Bft) 97,87 %
13.08.2020 21:04 24,5 C 22,2 C 21,7 C 79 % 1011,4 hPa 0,0 l/m 0 min 0 min 0 W/m 0,0 km/h (0 Bft) 93,62 %
13.08.2020 21:06 24,5 C 22,2 C 21,7 C 79 % 1011,4 hPa 0,0 l/m 0 min 0 min 0 W/m 0,0 km/h (0 Bft) 97,87 %
13.08.2020 21:08 24,4 C 22,2 C 21,7 C 79 % 1011,4 hPa 0,0 l/m 0 min 0 min 0 W/m 0,0 km/h (0 Bft) 91,30 %
13.08.2020 21:10 24,4 C 22,2 C 21,7 C 79 % 1011,4 hPa 0,0 l/m 0 min 0 min 0 W/m 0,0 km/h (0 Bft) 100,00 %
13.08.2020 21:12 24,4 C 22,2 C 21,7 C 79 % 1011,4 hPa 0,0 l/m 0 min 0 min 0 W/m 0,0 km/h (0 Bft) 100,00 %
13.08.2020 21:14 24,3 C 22,2 C 21,1 C 78 % 1011,4 hPa 0,0 l/m 0 min 0 min 0 W/m 0,0 km/h (0 Bft) 100,00 %
13.08.2020 21:16 24,3 C 22,2 C 21,1 C 78 % 1011,4 hPa 0,0 l/m 0 min 0 min 0 W/m 0,0 km/h (0 Bft) 100,00 %
13.08.2020 21:18 24,3 C 22,2 C 21,1 C 79 % 1011,4 hPa 0,0 l/m 0 min 0 min 0 W/m 0,0 km/h (0 Bft) 100,00 %
13.08.2020 21:20 24,2 C 21,7 C 21,1 C 79 % 1011,4 hPa 0,0 l/m 0 min 0 min 0 W/m 0,0 km/h (0 Bft) 100,00 %
13.08.2020 21:22 24,2 C 21,7 C 21,1 C 79 % 1011,4 hPa 0,0 l/m 0 min 0 min 0 W/m 0,0 km/h (0 Bft) 100,00 %
13.08.2020 21:24 24,2 C 21,7 C 21,1 C 79 % 1011,4 hPa 0,0 l/m 0 min 0 min 0 W/m 0,0 km/h (0 Bft) 100,00 %
13.08.2020 21:26 24,1 C 21,7 C 21,1 C 79 % 1011,4 hPa 0,0 l/m 0 min 0 min 0 W/m 0,0 km/h (0 Bft) 100,00 %
13.08.2020 21:28 24,1 C 22,2 C 21,1 C 80 % 1011,5 hPa 0,0 l/m 0 min 0 min 0 W/m 0,0 km/h (0 Bft) 97,87 %
13.08.2020 21:30 24,1 C 22,2 C 21,7 C 80 % 1011,5 hPa 0,0 l/m 0 min 0 min 0 W/m 3,2 km/h (1 Bft) 100,00 %
13.08.2020 21:32 24,0 C 22,2 C 21,7 C 80 % 1011,5 hPa 0,0 l/m 0 min 0 min 0 W/m 0,0 km/h (0 Bft) 97,83 %
13.08.2020 21:34 23,9 C 22,2 C 21,7 C 81 % 1011,5 hPa 0,0 l/m 0 min 0 min 0 W/m 6,4 km/h (2 Bft) 100,00 %
13.08.2020 21:36 23,9 C 22,2 C 21,7 C 81 % 1011,5 hPa 0,0 l/m 0 min 0 min 0 W/m 12,9 km/h (3 Bft) 100,00 %
13.08.2020 21:38 23,8 C 22,2 C 21,7 C 82 % 1011,5 hPa 0,0 l/m 0 min 0 min 0 W/m 3,2 km/h (1 Bft) 100,00 %
13.08.2020 21:40 23,8 C 22,2 C 21,7 C 82 % 1011,5 hPa 0,0 l/m 0 min 0 min 0 W/m 0,0 km/h (0 Bft) 100,00 %
13.08.2020 21:42 23,7 C 22,2 C 21,7 C 82 % 1011,4 hPa 0,0 l/m 0 min 0 min 0 W/m 12,9 km/h (3 Bft) 97,87 %
13.08.2020 21:44 23,7 C 22,2 C 21,7 C 83 % 1011,4 hPa 0,0 l/m 0 min 0 min 0 W/m 0,0 km/h (0 Bft) 97,83 %
13.08.2020 21:46 23,7 C 21,7 C 21,7 C 83 % 1011,4 hPa 0,0 l/m 0 min 0 min 0 W/m 0,0 km/h (0 Bft) 97,87 %
13.08.2020 21:48 23,7 C 21,7 C 21,7 C 83 % 1011,4 hPa 0,0 l/m 0 min 0 min 0 W/m 0,0 km/h (0 Bft) 97,87 %
13.08.2020 21:50 23,6 C 21,7 C 21,7 C 83 % 1011,4 hPa 0,0 l/m 0 min 0 min 0 W/m 0,0 km/h (0 Bft) 95,74 %
13.08.2020 21:52 23,6 C 21,7 C 21,7 C 83 % 1011,4 hPa 0,0 l/m 0 min 0 min 0 W/m 0,0 km/h (0 Bft) 97,87 %
13.08.2020 21:54 23,6 C 21,7 C 21,7 C 83 % 1011,4 hPa 0,0 l/m 0 min 0 min 0 W/m 0,0 km/h (0 Bft) 97,83 %
13.08.2020 21:56 23,6 C 21,7 C 21,1 C 84 % 1011,4 hPa 0,0 l/m 0 min 0 min 0 W/m 0,0 km/h (0 Bft) 97,87 %
13.08.2020 21:58 23,6 C 21,7 C 21,1 C 84 % 1011,4 hPa 0,0 l/m 0 min 0 min 0 W/m 0,0 km/h (0 Bft) 97,87 %
13.08.2020 22:00 23,5 C 21,7 C 21,1 C 84 % 1011,5 hPa 0,0 l/m 0 min 0 min 0 W/m 0,0 km/h (0 Bft) 97,87 %
13.08.2020 22:02 23,5 C 21,7 C 21,1 C 85 % 1011,5 hPa 0,0 l/m 0 min 0 min 0 W/m 0,0 km/h (0 Bft) 97,87 %
13.08.2020 22:04 23,5 C 21,7 C 21,1 C 85 % 1011,6 hPa 0,0 l/m 0 min 0 min 0 W/m 0,0 km/h (0 Bft) 97,87 %
13.08.2020 22:06 23,4 C 21,1 C 21,1 C 85 % 1011,6 hPa 0,0 l/m 0 min 0 min 0 W/m 0,0 km/h (0 Bft) 95,65 %
13.08.2020 22:08 23,4 C 21,1 C 21,1 C 85 % 1011,6 hPa 0,0 l/m 0 min 0 min 0 W/m 0,0 km/h (0 Bft) 97,87 %
13.08.2020 22:10 23,4 C 21,1 C 21,1 C 85 % 1011,7 hPa 0,0 l/m 0 min 0 min 0 W/m 0,0 km/h (0 Bft) 97,87 %
13.08.2020 22:12 23,4 C 21,1 C 21,1 C 85 % 1011,8 hPa 0,0 l/m 0 min 0 min 0 W/m 0,0 km/h (0 Bft) 97,87 %
13.08.2020 22:14 23,3 C 21,1 C 20,6 C 85 % 1011,9 hPa 0,0 l/m 0 min 0 min 0 W/m 0,0 km/h (0 Bft) 97,87 %
13.08.2020 22:16 23,3 C 21,1 C 20,6 C 85 % 1011,9 hPa 0,0 l/m 0 min 0 min 0 W/m 0,0 km/h (0 Bft) 97,87 %
13.08.2020 22:18 23,3 C 21,1 C 20,6 C 85 % 1011,9 hPa 0,0 l/m 0 min 0 min 0 W/m 0,0 km/h (0 Bft) 95,65 %
13.08.2020 22:20 23,3 C 20,6 C 20,6 C 85 % 1012,0 hPa 0,0 l/m 0 min 0 min 0 W/m 0,0 km/h (0 Bft) 97,87 %
13.08.2020 22:22 23,3 C 20,6 C 20,6 C 85 % 1012,0 hPa 0,0 l/m 0 min 0 min 0 W/m 0,0 km/h (0 Bft) 97,87 %
13.08.2020 22:24 23,2 C 20,6 C 20,6 C 85 % 1012,0 hPa 0,0 l/m 0 min 0 min 0 W/m 0,0 km/h (0 Bft) 97,87 %
13.08.2020 22:26 23,2 C 20,6 C 20,6 C 85 % 1012,0 hPa 0,0 l/m 0 min 0 min 0 W/m 0,0 km/h (0 Bft) 97,87 %
13.08.2020 22:28 23,2 C 20,6 C 20,6 C 85 % 1012,0 hPa 0,0 l/m 0 min 0 min 0 W/m 0,0 km/h (0 Bft) 95,74 %
13.08.2020 22:30 23,1 C 20,6 C 20,6 C 85 % 1012,0 hPa 0,0 l/m 0 min 0 min 0 W/m 0,0 km/h (0 Bft) 97,83 %
13.08.2020 22:32 23,1 C 20,6 C 20,6 C 86 % 1012,0 hPa 0,0 l/m 0 min 0 min 0 W/m 0,0 km/h (0 Bft) 91,49 %
13.08.2020 22:34 23,1 C 20,6 C 20,6 C 86 % 1012,1 hPa 0,0 l/m 0 min 0 min 0 W/m 0,0 km/h (0 Bft) 93,62 %
13.08.2020 22:36 23,1 C 20,6 C 20,6 C 86 % 1012,1 hPa 0,0 l/m 0 min 0 min 0 W/m 0,0 km/h (0 Bft) 93,62 %
13.08.2020 22:38 23,1 C 20,6 C 20,6 C 86 % 1012,2 hPa 0,0 l/m 0 min 0 min 0 W/m 0,0 km/h (0 Bft) 95,74 %
13.08.2020 22:40 23,0 C 20,6 C 20,6 C 86 % 1012,2 hPa 0,0 l/m 0 min 0 min 0 W/m 0,0 km/h (0 Bft) 97,87 %
13.08.2020 22:42 23,0 C 20,6 C 20,6 C 86 % 1012,2 hPa 0,0 l/m 0 min 0 min 0 W/m 0,0 km/h (0 Bft) 97,83 %
13.08.2020 22:44 22,9 C 20,6 C 20,6 C 87 % 1012,3 hPa 0,0 l/m 0 min 0 min 0 W/m 0,0 km/h (0 Bft) 97,73 %
13.08.2020 22:46 22,9 C 20,6 C 20,6 C 87 % 1012,3 hPa 0,0 l/m 0 min 0 min 0 W/m 0,0 km/h (0 Bft) 97,87 %
13.08.2020 22:48 22,9 C 20,6 C 20,6 C 86 % 1012,4 hPa 0,0 l/m 0 min 0 min 0 W/m 0,0 km/h (0 Bft) 93,62 %
13.08.2020 22:50 22,8 C 20,6 C 20,6 C 87 % 1012,4 hPa 0,0 l/m 0 min 0 min 0 W/m 0,0 km/h (0 Bft) 93,62 %
13.08.2020 22:52 22,8 C 20,6 C 20,6 C 87 % 1012,4 hPa 0,0 l/m 0 min 0 min 0 W/m 0,0 km/h (0 Bft) 95,74 %
13.08.2020 22:54 22,8 C 20,6 C 20,6 C 87 % 1012,4 hPa 0,0 l/m 0 min 0 min 0 W/m 0,0 km/h (0 Bft) 97,87 %
13.08.2020 22:56 22,8 C 20,6 C 20,6 C 87 % 1012,4 hPa 0,0 l/m 0 min 0 min 0 W/m 0,0 km/h (0 Bft) 97,83 %
13.08.2020 22:58 22,8 C 20,6 C 20,6 C 87 % 1012,4 hPa 0,0 l/m 0 min 0 min 0 W/m 0,0 km/h (0 Bft) 93,62 %
13.08.2020 23:00 22,7 C 20,6 C 20,6 C 87 % 1012,4 hPa 0,0 l/m 0 min 0 min 0 W/m 0,0 km/h (0 Bft) 95,74 %
13.08.2020 23:02 22,7 C 20,6 C 20,6 C 87 % 1012,3 hPa 0,0 l/m 0 min 0 min 0 W/m 0,0 km/h (0 Bft) 97,87 %
13.08.2020 23:04 22,7 C 20,6 C 20,0 C 87 % 1012,3 hPa 0,0 l/m 0 min 0 min 0 W/m 0,0 km/h (0 Bft) 97,87 %
13.08.2020 23:06 22,7 C 20,6 C 20,0 C 87 % 1012,3 hPa 0,0 l/m 0 min 0 min 0 W/m 0,0 km/h (0 Bft) 95,74 %
13.08.2020 23:08 22,6 C 20,6 C 20,0 C 87 % 1012,3 hPa 0,0 l/m 0 min 0 min 0 W/m 0,0 km/h (0 Bft) 93,48 %
13.08.2020 23:10 22,6 C 20,6 C 20,0 C 87 % 1012,3 hPa 0,0 l/m 0 min 0 min 0 W/m 0,0 km/h (0 Bft) 95,74 %
13.08.2020 23:12 22,6 C 21,1 C 20,6 C 87 % 1012,3 hPa 0,0 l/m 0 min 0 min 0 W/m 0,0 km/h (0 Bft) 95,74 %
13.08.2020 23:14 22,6 C 21,1 C 20,6 C 88 % 1012,3 hPa 0,0 l/m 0 min 0 min 0 W/m 3,2 km/h (1 Bft) 95,74 %
13.08.2020 23:16 22,6 C 21,1 C 20,6 C 88 % 1012,3 hPa 0,0 l/m 0 min 0 min 0 W/m 0,0 km/h (0 Bft) 95,74 %
13.08.2020 23:18 22,6 C 21,1 C 20,6 C 88 % 1012,4 hPa 0,0 l/m 0 min 0 min 0 W/m 0,0 km/h (0 Bft) 95,74 %
13.08.2020 23:20 22,5 C 21,7 C 20,6 C 88 % 1012,3 hPa 0,0 l/m 0 min 0 min 0 W/m 0,0 km/h (0 Bft) 97,87 %
13.08.2020 23:22 22,5 C 21,7 C 20,6 C 88 % 1012,4 hPa 0,0 l/m 0 min 0 min 0 W/m 0,0 km/h (0 Bft) 97,87 %
13.08.2020 23:24 22,5 C 21,7 C 21,1 C 88 % 1012,3 hPa 0,0 l/m 0 min 0 min 0 W/m 0,0 km/h (0 Bft) 97,87 %
13.08.2020 23:26 22,4 C 21,7 C 21,1 C 88 % 1012,3 hPa 0,0 l/m 0 min 0 min 0 W/m 0,0 km/h (0 Bft) 97,87 %
13.08.2020 23:28 22,4 C 21,7 C 21,1 C 88 % 1012,4 hPa 0,0 l/m 0 min 0 min 0 W/m 0,0 km/h (0 Bft) 93,62 %
13.08.2020 23:30 22,4 C 21,7 C 21,1 C 89 % 1012,3 hPa 0,0 l/m 0 min 0 min 0 W/m 0,0 km/h (0 Bft) 97,83 %
13.08.2020 23:32 22,4 C 21,7 C 21,1 C 89 % 1012,3 hPa 0,0 l/m 0 min 0 min 0 W/m 0,0 km/h (0 Bft) 95,83 %
13.08.2020 23:34 22,4 C 21,7 C 21,1 C 89 % 1012,3 hPa 0,0 l/m 0 min 0 min 0 W/m 0,0 km/h (0 Bft) 95,74 %
13.08.2020 23:36 22,4 C 21,7 C 21,1 C 89 % 1012,3 hPa 0,0 l/m 0 min 0 min 0 W/m 0,0 km/h (0 Bft) 97,87 %
13.08.2020 23:38 22,4 C 21,7 C 21,1 C 89 % 1012,4 hPa 0,0 l/m 0 min 0 min 0 W/m 0,0 km/h (0 Bft) 97,87 %
13.08.2020 23:40 22,4 C 21,7 C 21,1 C 89 % 1012,5 hPa 0,0 l/m 0 min 0 min 0 W/m 0,0 km/h (0 Bft) 97,87 %
13.08.2020 23:42 22,4 C 21,7 C 21,1 C 89 % 1012,5 hPa 0,0 l/m 0 min 0 min 0 W/m 0,0 km/h (0 Bft) 97,83 %
13.08.2020 23:44 22,4 C 21,7 C 21,1 C 89 % 1012,5 hPa 0,0 l/m 0 min 0 min 0 W/m 0,0 km/h (0 Bft) 97,87 %
13.08.2020 23:46 22,4 C 21,1 C 21,1 C 89 % 1012,5 hPa 0,0 l/m 0 min 0 min 0 W/m 0,0 km/h (0 Bft) 97,87 %
13.08.2020 23:48 22,5 C 21,1 C 21,1 C 89 % 1012,4 hPa 0,0 l/m 0 min 0 min 0 W/m 0,0 km/h (0 Bft) 97,87 %
13.08.2020 23:50 22,5 C 21,1 C 21,1 C 90 % 1012,4 hPa 0,0 l/m 0 min 0 min 0 W/m 0,0 km/h (0 Bft) 97,87 %
13.08.2020 23:52 22,5 C 21,1 C 21,1 C 90 % 1012,4 hPa 0,0 l/m 0 min 0 min 0 W/m 0,0 km/h (0 Bft) 97,87 %
13.08.2020 23:54 22,5 C 21,1 C 21,1 C 90 % 1012,5 hPa 0,0 l/m 0 min 0 min 0 W/m 0,0 km/h (0 Bft) 97,83 %
13.08.2020 23:56 22,5 C 21,1 C 21,1 C 90 % 1012,5 hPa 0,0 l/m 0 min 0 min 0 W/m 0,0 km/h (0 Bft) 100,00 %
13.08.2020 23:58 22,5 C 21,1 C 21,1 C 90 % 1012,5 hPa 0,0 l/m 0 min 0 min 0 W/m 0,0 km/h (0 Bft) 100,00 %
_ Min-Zeit 06:24 04:46 04:48 15:42 17:06 - - - - 01:58 00:02
Minimum _ 20,3 C 18,3 C 18,3 C 46 % 1009,9 hPa - - - - 0,0 km/h (0 Bft) 9,52 %
_ Max-Zeit 16:52 15:30 15:36 08:00 00:00 04:48 12:08 04:24 13:22 17:44 01:34
Maximum _ 34,2 C 39,4 C 32,2 C 97 % 1013,0 hPa 1,0 l/m 4 min 2 min 852 W/m 41,8 km/h
O-NO (6 Bft)
100,00 %
Durchschnitt _ 25,1 C 25,2 C 23,0 C 79 % 1011,7 hPa #6,2 l/m #5:32 h #1:40 h 322 W/m 6,2 km/h (2 Bft) 97,23 %
© 2020 W. Hausmann